Time,TemperatureF,DewpointF,PressureIn,WindDirection,WindDirectionDegrees,WindSpeedMPH,WindSpeedGustMPH,Humidity,HourlyPrecipIn,Conditions,Clouds,dailyrainin,SoftwareType,DateUTC
2013-04-05 00:00:00,41.7,4.7,30.09,SW,225,2.7,3.4,21,5.14,,---,0.00,VWS V14.00,2013-04-05 04:00:00,
2013-04-05 00:01:00,41.7,4.7,30.09,SSW,202,2.7,4.3,21,5.14,,---,0.00,VWS V14.00,2013-04-05 04:01:00,
2013-04-05 00:06:00,41.9,4.8,30.09,WNW,292,2.5,4.0,21,5.14,,---,0.00,VWS V14.00,2013-04-05 04:06:00,
2013-04-05 00:07:00,41.9,4.8,30.09,SSW,202,2.5,2.9,21,5.14,,---,0.00,VWS V14.00,2013-04-05 04:07:00,
2013-04-05 00:11:00,41.9,4.8,30.09,West,270,4.7,5.6,21,5.14,,---,0.00,VWS V14.00,2013-04-05 04:11:00,
2013-04-05 00:13:00,41.9,4.8,30.09,SSW,202,3.1,4.7,21,5.14,,---,0.00,VWS V14.00,2013-04-05 04:13:00,
2013-04-05 00:15:00,41.9,4.8,30.09,SSW,202,2.7,6.3,21,5.14,,---,0.00,VWS V14.00,2013-04-05 04:15:00,
2013-04-05 00:17:00,42.1,5.0,30.09,West,270,2.2,3.6,21,5.14,,---,0.00,VWS V14.00,2013-04-05 04:17:00,
2013-04-05 00:20:00,42.1,5.0,30.09,WNW,292,2.9,4.0,21,5.14,,---,0.00,VWS V14.00,2013-04-05 04:20:00,
2013-04-05 00:22:00,42.1,5.0,30.09,SSW,202,1.3,3.6,21,5.14,,---,0.00,VWS V14.00,2013-04-05 04:22:00,
2013-04-05 00:25:00,42.1,5.0,30.09,WSW,248,3.6,3.6,21,5.14,,---,0.00,VWS V14.00,2013-04-05 04:25:00,
2013-04-05 00:27:00,42.1,5.0,30.09,SSW,202,3.4,6.0,21,5.14,,---,0.00,VWS V14.00,2013-04-05 04:27:00,
2013-04-05 00:31:00,42.1,5.0,30.09,SSW,202,2.2,4.0,21,5.14,,---,0.00,VWS V14.00,2013-04-05 04:31:00,
2013-04-05 00:32:00,42.1,5.0,30.09,WSW,248,2.7,3.6,21,5.14,,---,0.00,VWS V14.00,2013-04-05 04:32:00,
2013-04-05 00:34:00,42.1,5.0,30.09,SW,225,3.1,3.1,21,5.14,,---,0.00,VWS V14.00,2013-04-05 04:34:00,
2013-04-05 00:37:00,42.3,5.1,30.06,WSW,248,2.2,2.9,21,5.14,,---,0.00,VWS V14.00,2013-04-05 04:37:00,
2013-04-05 00:38:00,42.3,5.1,30.06,WSW,248,0.0,2.2,21,5.14,,---,0.00,VWS V14.00,2013-04-05 04:38:00,
2013-04-05 00:39:00,42.3,5.1,30.06,West,270,2.7,2.9,21,5.14,,---,0.00,VWS V14.00,2013-04-05 04:39:00,
2013-04-05 00:43:00,42.3,5.1,30.06,WSW,248,3.8,4.7,21,5.14,,---,0.00,VWS V14.00,2013-04-05 04:43:00,
2013-04-05 00:44:00,42.3,5.1,30.06,SW,225,1.6,5.8,21,5.14,,---,0.00,VWS V14.00,2013-04-05 04:44:00,
2013-04-05 00:46:00,42.3,5.1,30.06,SSW,202,0.0,3.8,21,5.14,,---,0.00,VWS V14.00,2013-04-05 04:46:00,
2013-04-05 00:47:00,42.3,5.1,30.06,SSW,202,3.8,6.9,21,5.14,,---,0.00,VWS V14.00,2013-04-05 04:47:00,
2013-04-05 00:50:00,42.3,5.1,30.09,SSW,202,2.2,3.1,21,5.14,,---,0.00,VWS V14.00,2013-04-05 04:50:00,
2013-04-05 00:52:00,42.3,5.1,30.09,WSW,248,4.3,4.3,21,5.14,,---,0.00,VWS V14.00,2013-04-05 04:52:00,
2013-04-05 00:53:00,42.3,5.1,30.09,West,270,2.9,5.6,21,5.14,,---,0.00,VWS V14.00,2013-04-05 04:53:00,
2013-04-05 00:55:00,42.3,5.1,30.09,SW,225,2.2,3.1,21,5.14,,---,0.00,VWS V14.00,2013-04-05 04:55:00,
2013-04-05 00:57:00,42.3,5.1,30.09,WSW,248,1.6,4.5,21,5.14,,---,0.00,VWS V14.00,2013-04-05 04:57:00,
2013-04-05 01:00:00,42.4,5.3,30.09,WSW,248,4.0,7.8,21,5.14,,---,0.00,VWS V14.00,2013-04-05 05:00:00,
2013-04-05 01:02:00,42.4,5.3,30.09,SSW,202,2.5,5.4,21,5.14,,---,0.00,VWS V14.00,2013-04-05 05:02:00,
2013-04-05 01:05:00,42.4,5.3,30.09,SW,225,1.3,3.1,21,5.14,,---,0.00,VWS V14.00,2013-04-05 05:05:00,
2013-04-05 01:06:00,42.4,5.3,30.09,WSW,248,4.7,4.9,21,5.14,,---,0.00,VWS V14.00,2013-04-05 05:06:00,
2013-04-05 01:10:00,42.4,5.3,30.09,West,270,6.0,6.5,21,5.14,,---,0.00,VWS V14.00,2013-04-05 05:10:00,
2013-04-05 01:11:00,42.4,5.3,30.09,WSW,248,4.7,6.0,21,5.14,,---,0.00,VWS V14.00,2013-04-05 05:11:00,
2013-04-05 01:13:00,42.4,5.3,30.09,WSW,248,4.3,4.7,21,5.14,,---,0.00,VWS V14.00,2013-04-05 05:13:00,
2013-04-05 01:15:00,42.4,5.3,30.09,SSW,202,1.1,2.7,21,5.14,,---,0.00,VWS V14.00,2013-04-05 05:15:00,
2013-04-05 01:16:00,42.4,5.3,30.09,South,180,7.2,9.0,21,5.14,,---,0.00,VWS V14.00,2013-04-05 05:16:00,
2013-04-05 01:17:00,42.4,5.3,30.09,West,270,6.3,7.2,21,5.14,,---,0.00,VWS V14.00,2013-04-05 05:17:00,
2013-04-05 01:22:00,42.6,5.4,30.09,West,270,2.2,4.3,21,5.14,,---,0.00,VWS V14.00,2013-04-05 05:22:00,
2013-04-05 01:24:00,42.4,5.3,30.09,WSW,248,2.9,3.4,21,5.14,,---,0.00,VWS V14.00,2013-04-05 05:24:00,
2013-04-05 01:25:00,42.6,5.4,30.09,WSW,248,2.5,3.4,21,5.14,,---,0.00,VWS V14.00,2013-04-05 05:25:00,
2013-04-05 01:28:00,42.6,5.4,30.09,SW,225,4.3,4.9,21,5.14,,---,0.00,VWS V14.00,2013-04-05 05:28:00,
2013-04-05 01:30:00,42.6,5.4,30.09,WSW,248,2.5,2.9,21,5.14,,---,0.00,VWS V14.00,2013-04-05 05:30:00,
2013-04-05 01:31:00,42.6,5.4,30.09,West,270,4.0,4.0,21,5.14,,---,0.00,VWS V14.00,2013-04-05 05:31:00,
2013-04-05 01:34:00,42.6,5.4,30.09,SW,225,2.9,5.8,21,5.14,,---,0.00,VWS V14.00,2013-04-05 05:34:00,
2013-04-05 01:38:00,42.6,5.4,30.06,WSW,248,4.9,6.0,21,5.14,,---,0.00,VWS V14.00,2013-04-05 05:38:00,
2013-04-05 01:39:00,42.6,5.4,30.06,WSW,248,3.6,4.5,21,5.14,,---,0.00,VWS V14.00,2013-04-05 05:39:00,
2013-04-05 01:45:00,42.6,5.4,30.06,West,270,4.3,4.3,21,5.14,,---,0.00,VWS V14.00,2013-04-05 05:45:00,
2013-04-05 01:46:00,42.6,5.4,30.06,WSW,248,2.7,3.1,21,5.14,,---,0.00,VWS V14.00,2013-04-05 05:46:00,
2013-04-05 01:48:00,42.6,5.4,30.06,WSW,248,0.0,5.8,21,5.14,,---,0.00,VWS V14.00,2013-04-05 05:48:00,
2013-04-05 01:50:00,42.6,5.4,30.06,WSW,248,3.4,3.6,21,5.14,,---,0.00,VWS V14.00,2013-04-05 05:50:00,
2013-04-05 01:53:00,42.6,5.4,30.06,West,270,3.1,3.8,21,5.14,,---,0.00,VWS V14.00,2013-04-05 05:53:00,
2013-04-05 01:56:00,42.6,5.4,30.06,WSW,248,5.8,5.8,21,5.14,,---,0.00,VWS V14.00,2013-04-05 05:56:00,
2013-04-05 01:58:00,42.6,5.4,30.06,West,270,4.0,5.4,21,5.14,,---,0.00,VWS V14.00,2013-04-05 05:58:00,
2013-04-05 02:02:00,42.6,5.4,30.06,WNW,292,2.9,4.9,21,5.14,,---,0.00,VWS V14.00,2013-04-05 06:02:00,
2013-04-05 02:04:00,42.6,5.4,30.03,West,270,2.7,3.6,21,5.14,,---,0.00,VWS V14.00,2013-04-05 06:04:00,
2013-04-05 02:07:00,42.6,5.4,30.03,WSW,248,3.1,3.1,21,5.14,,---,0.00,VWS V14.00,2013-04-05 06:07:00,
2013-04-05 02:09:00,42.6,5.4,30.03,SSW,202,1.1,4.3,21,5.14,,---,0.00,VWS V14.00,2013-04-05 06:09:00,
2013-04-05 02:10:00,42.6,5.4,30.03,WSW,248,1.3,4.0,21,5.14,,---,0.00,VWS V14.00,2013-04-05 06:10:00,
2013-04-05 02:15:00,42.3,5.1,30.03,WSW,248,0.0,3.8,21,5.14,,---,0.00,VWS V14.00,2013-04-05 06:15:00,
2013-04-05 02:21:00,42.1,5.0,30.03,WSW,248,0.0,3.4,21,5.14,,---,0.00,VWS V14.00,2013-04-05 06:21:00,
2013-04-05 02:24:00,42.1,5.0,30.03,WSW,248,2.7,2.9,21,5.14,,---,0.00,VWS V14.00,2013-04-05 06:24:00,
2013-04-05 02:26:00,41.9,4.8,30.03,SSW,202,2.0,4.9,21,5.14,,---,0.00,VWS V14.00,2013-04-05 06:26:00,
2013-04-05 02:28:00,41.9,4.8,30.03,WSW,248,2.5,3.6,21,5.14,,---,0.00,VWS V14.00,2013-04-05 06:28:00,
2013-04-05 02:29:00,41.9,4.8,30.03,West,270,3.4,5.6,21,5.14,,---,0.00,VWS V14.00,2013-04-05 06:29:00,
2013-04-05 02:31:00,41.9,4.8,30.03,West,270,1.6,4.9,21,5.14,,---,0.00,VWS V14.00,2013-04-05 06:31:00,
2013-04-05 02:33:00,41.7,4.7,30.03,WSW,248,1.3,2.7,21,5.14,,---,0.00,VWS V14.00,2013-04-05 06:33:00,
2013-04-05 02:35:00,41.7,4.7,30.00,West,270,2.5,3.4,21,5.14,,---,0.00,VWS V14.00,2013-04-05 06:35:00,
2013-04-05 02:38:00,41.7,6.7,30.00,WSW,248,0.9,4.3,23,5.14,,---,0.00,VWS V14.00,2013-04-05 06:38:00,
2013-04-05 02:40:00,41.5,6.5,30.00,WSW,248,2.2,4.0,23,5.14,,---,0.00,VWS V14.00,2013-04-05 06:40:00,
2013-04-05 02:41:00,41.5,6.5,30.00,WSW,248,0.0,2.2,23,5.14,,---,0.00,VWS V14.00,2013-04-05 06:41:00,
2013-04-05 02:42:00,41.4,6.4,30.00,WSW,248,2.5,2.9,23,5.14,,---,0.00,VWS V14.00,2013-04-05 06:42:00,
2013-04-05 02:45:00,41.4,6.4,30.00,West,270,2.0,3.6,23,5.14,,---,0.00,VWS V14.00,2013-04-05 06:45:00,
2013-04-05 02:49:00,41.2,6.2,30.00,WSW,248,2.7,2.7,23,5.14,,---,0.00,VWS V14.00,2013-04-05 06:49:00,
2013-04-05 02:51:00,41.2,6.2,30.00,West,270,1.6,3.4,23,5.14,,---,0.00,VWS V14.00,2013-04-05 06:51:00,
2013-04-05 02:52:00,41.2,6.2,30.00,WSW,248,0.0,2.9,23,5.14,,---,0.00,VWS V14.00,2013-04-05 06:52:00,
2013-04-05 02:55:00,41.0,6.1,30.00,WSW,248,2.5,2.5,23,5.14,,---,0.00,VWS V14.00,2013-04-05 06:55:00,
2013-04-05 02:56:00,41.2,6.2,30.00,WSW,248,2.5,5.6,23,5.14,,---,0.00,VWS V14.00,2013-04-05 06:56:00,
2013-04-05 02:59:00,41.0,6.1,30.00,WSW,248,2.5,3.8,23,5.14,,---,0.00,VWS V14.00,2013-04-05 06:59:00,
2013-04-05 03:01:00,41.0,6.1,30.00,WSW,248,2.7,3.1,23,5.14,,---,0.00,VWS V14.00,2013-04-05 07:01:00,
2013-04-05 03:05:00,41.0,6.1,30.03,WSW,248,0.0,0.0,23,5.14,,---,0.00,VWS V14.00,2013-04-05 07:05:00,
2013-04-05 03:06:00,40.8,8.6,30.03,WSW,248,0.0,2.5,26,5.14,,---,0.00,VWS V14.00,2013-04-05 07:06:00,
2013-04-05 03:09:00,40.8,8.6,30.03,WSW,248,1.6,2.5,26,5.14,,---,0.00,VWS V14.00,2013-04-05 07:09:00,
2013-04-05 03:10:00,40.8,8.6,30.03,WSW,248,0.0,1.6,26,5.14,,---,0.00,VWS V14.00,2013-04-05 07:10:00,
2013-04-05 03:11:00,40.6,8.4,30.03,WSW,248,0.0,0.0,26,5.14,,---,0.00,VWS V14.00,2013-04-05 07:11:00,
2013-04-05 03:15:00,40.6,8.4,30.03,WSW,248,0.0,0.0,26,5.14,,---,0.00,VWS V14.00,2013-04-05 07:15:00,
2013-04-05 03:17:00,40.6,8.4,30.03,WSW,248,0.0,0.0,26,5.14,,---,0.00,VWS V14.00,2013-04-05 07:17:00,
2013-04-05 03:20:00,40.6,8.4,30.03,WSW,248,0.0,0.9,26,5.14,,---,0.00,VWS V14.00,2013-04-05 07:20:00,
2013-04-05 03:22:00,40.6,8.4,30.03,SSW,202,0.9,0.9,26,5.14,,---,0.00,VWS V14.00,2013-04-05 07:22:00,
2013-04-05 03:24:00,40.6,8.4,30.03,West,270,1.6,3.1,26,5.14,,---,0.00,VWS V14.00,2013-04-05 07:24:00,
2013-04-05 03:27:00,40.6,10.1,30.03,West,270,3.4,3.4,28,5.14,,---,0.00,VWS V14.00,2013-04-05 07:27:00,
2013-04-05 03:29:00,40.6,10.1,30.03,West,270,2.9,3.4,28,5.14,,---,0.00,VWS V14.00,2013-04-05 07:29:00,
2013-04-05 03:30:00,40.6,10.1,30.03,WSW,248,0.9,3.1,28,5.14,,---,0.00,VWS V14.00,2013-04-05 07:30:00,
2013-04-05 03:34:00,40.5,9.9,30.03,WSW,248,0.0,0.0,28,5.14,,---,0.00,VWS V14.00,2013-04-05 07:34:00,
2013-04-05 03:37:00,40.5,9.9,30.00,WSW,248,0.0,0.0,28,5.14,,---,0.00,VWS V14.00,2013-04-05 07:37:00,
2013-04-05 03:38:00,40.5,9.9,30.00,WSW,248,0.0,0.0,28,5.14,,---,0.00,VWS V14.00,2013-04-05 07:38:00,
2013-04-05 03:43:00,40.3,9.8,30.00,WSW,248,0.0,0.9,28,5.14,,---,0.00,VWS V14.00,2013-04-05 07:43:00,
2013-04-05 03:44:00,40.3,9.8,30.00,WSW,248,0.0,0.0,28,5.14,,---,0.00,VWS V14.00,2013-04-05 07:44:00,
2013-04-05 03:45:00,40.3,9.8,30.00,WSW,248,0.0,0.0,28,5.14,,---,0.00,VWS V14.00,2013-04-05 07:45:00,
2013-04-05 03:51:00,40.1,9.6,29.97,WSW,248,0.0,0.0,28,5.14,,---,0.00,VWS V14.00,2013-04-05 07:51:00,
2013-04-05 03:52:00,40.1,9.6,29.97,WSW,248,0.0,0.0,28,5.14,,---,0.00,VWS V14.00,2013-04-05 07:52:00,
2013-04-05 03:57:00,40.1,9.6,29.97,WSW,248,0.0,0.0,28,5.14,,---,0.00,VWS V14.00,2013-04-05 07:57:00,
2013-04-05 03:58:00,40.1,9.6,29.97,WSW,248,0.0,0.0,28,5.14,,---,0.00,VWS V14.00,2013-04-05 07:58:00,
2013-04-05 03:59:00,40.1,10.4,29.97,WSW,248,0.0,0.0,29,5.14,,---,0.00,VWS V14.00,2013-04-05 07:59:00,
2013-04-05 04:02:00,40.1,10.4,29.97,WSW,248,0.0,0.0,29,5.14,,---,0.00,VWS V14.00,2013-04-05 08:02:00,
2013-04-05 04:09:00,39.9,10.2,29.97,WSW,248,0.0,0.0,29,5.14,,---,0.00,VWS V14.00,2013-04-05 08:09:00,
2013-04-05 04:10:00,40.1,10.4,29.97,WSW,248,0.0,0.0,29,5.14,,---,0.00,VWS V14.00,2013-04-05 08:10:00,
2013-04-05 04:12:00,39.9,10.2,29.97,WSW,248,0.0,0.0,29,5.14,,---,0.00,VWS V14.00,2013-04-05 08:12:00,
2013-04-05 04:14:00,40.1,10.4,29.97,WSW,248,0.0,0.0,29,5.14,,---,0.00,VWS V14.00,2013-04-05 08:14:00,
2013-04-05 04:18:00,40.1,10.4,29.97,WSW,248,0.0,0.0,29,5.14,,---,0.00,VWS V14.00,2013-04-05 08:18:00,
2013-04-05 04:19:00,39.9,10.2,29.97,WSW,248,0.0,0.0,29,5.14,,---,0.00,VWS V14.00,2013-04-05 08:19:00,
2013-04-05 04:25:00,39.9,10.2,29.97,WSW,248,0.0,0.0,29,5.14,,---,0.00,VWS V14.00,2013-04-05 08:25:00,
2013-04-05 04:26:00,39.9,10.2,29.97,WSW,248,0.0,0.0,29,5.14,,---,0.00,VWS V14.00,2013-04-05 08:26:00,
2013-04-05 04:27:00,39.9,10.2,29.97,WSW,248,0.0,0.0,29,5.14,,---,0.00,VWS V14.00,2013-04-05 08:27:00,
2013-04-05 04:28:00,40.1,10.4,29.97,WSW,248,0.0,0.0,29,5.14,,---,0.00,VWS V14.00,2013-04-05 08:28:00,
2013-04-05 04:30:00,40.3,10.6,29.97,WSW,248,0.0,0.0,29,5.14,,---,0.00,VWS V14.00,2013-04-05 08:30:00,
2013-04-05 04:32:00,40.1,10.4,29.97,WSW,248,0.0,0.0,29,5.14,,---,0.00,VWS V14.00,2013-04-05 08:32:00,
2013-04-05 04:34:00,39.9,10.2,29.97,WSW,248,0.0,0.0,29,5.14,,---,0.00,VWS V14.00,2013-04-05 08:34:00,
2013-04-05 04:36:00,39.9,10.2,29.94,WSW,248,0.0,0.0,29,5.14,,---,0.00,VWS V14.00,2013-04-05 08:36:00,
2013-04-05 04:37:00,39.9,10.2,29.94,WSW,248,0.0,0.0,29,5.14,,---,0.00,VWS V14.00,2013-04-05 08:37:00,
2013-04-05 04:40:00,39.9,10.2,29.94,WSW,248,0.0,0.0,29,5.14,,---,0.00,VWS V14.00,2013-04-05 08:40:00,
2013-04-05 04:41:00,40.1,10.4,29.94,WSW,248,0.0,0.0,29,5.14,,---,0.00,VWS V14.00,2013-04-05 08:41:00,
2013-04-05 04:44:00,40.1,10.4,29.94,WSW,248,0.0,0.0,29,5.14,,---,0.00,VWS V14.00,2013-04-05 08:44:00,
2013-04-05 04:46:00,40.3,10.6,29.94,WSW,248,0.0,0.0,29,5.14,,---,0.00,VWS V14.00,2013-04-05 08:46:00,
2013-04-05 04:48:00,39.9,10.2,29.94,WSW,248,0.0,0.0,29,5.14,,---,0.00,VWS V14.00,2013-04-05 08:48:00,
2013-04-05 04:53:00,39.7,10.1,29.97,WSW,248,0.0,0.0,29,5.14,,---,0.00,VWS V14.00,2013-04-05 08:53:00,
2013-04-05 04:55:00,39.7,10.1,29.97,WSW,248,0.0,0.0,29,5.14,,---,0.00,VWS V14.00,2013-04-05 08:55:00,
2013-04-05 04:57:00,39.7,10.1,29.97,WSW,248,0.0,0.0,29,5.14,,---,0.00,VWS V14.00,2013-04-05 08:57:00,
2013-04-05 05:01:00,39.7,10.1,29.97,WSW,248,0.0,0.0,29,5.14,,---,0.00,VWS V14.00,2013-04-05 09:01:00,
2013-04-05 05:02:00,39.7,10.1,29.97,WSW,248,0.0,0.0,29,5.14,,---,0.00,VWS V14.00,2013-04-05 09:02:00,
2013-04-05 05:04:00,39.7,10.1,29.97,WSW,248,0.0,0.0,29,5.14,,---,0.00,VWS V14.00,2013-04-05 09:04:00,
2013-04-05 05:07:00,39.7,10.1,29.97,WSW,248,0.0,0.0,29,5.14,,---,0.00,VWS V14.00,2013-04-05 09:07:00,
2013-04-05 05:10:00,39.7,10.1,29.97,WSW,248,0.0,0.0,29,5.14,,---,0.00,VWS V14.00,2013-04-05 09:10:00,
2013-04-05 05:11:00,39.7,10.1,29.97,WSW,248,0.0,0.0,29,5.14,,---,0.00,VWS V14.00,2013-04-05 09:11:00,
2013-04-05 05:14:00,39.7,10.1,29.97,WSW,248,0.0,0.0,29,5.14,,---,0.00,VWS V14.00,2013-04-05 09:14:00,
2013-04-05 05:15:00,39.7,10.1,29.97,WSW,248,0.0,0.0,29,5.14,,---,0.00,VWS V14.00,2013-04-05 09:15:00,
2013-04-05 05:18:00,39.7,10.1,29.97,WSW,248,0.0,0.0,29,5.14,,---,0.00,VWS V14.00,2013-04-05 09:18:00,
2013-04-05 05:19:00,39.7,10.1,29.97,WSW,248,0.0,0.0,29,5.14,,---,0.00,VWS V14.00,2013-04-05 09:19:00,
2013-04-05 05:21:00,39.7,10.1,29.97,WSW,248,0.0,0.0,29,5.14,,---,0.00,VWS V14.00,2013-04-05 09:21:00,
2013-04-05 05:23:00,39.7,10.1,29.97,WSW,248,0.0,0.0,29,5.14,,---,0.00,VWS V14.00,2013-04-05 09:23:00,
2013-04-05 05:25:00,39.7,10.1,29.97,WSW,248,0.0,0.0,29,5.14,,---,0.00,VWS V14.00,2013-04-05 09:25:00,
2013-04-05 05:26:00,39.7,10.1,29.97,WSW,248,0.0,0.0,29,5.14,,---,0.00,VWS V14.00,2013-04-05 09:26:00,
2013-04-05 05:28:00,39.7,10.1,29.97,WSW,248,0.0,0.0,29,5.14,,---,0.00,VWS V14.00,2013-04-05 09:28:00,
2013-04-05 05:31:00,40.1,11.2,29.97,WSW,248,0.0,0.0,30,5.14,,---,0.00,VWS V14.00,2013-04-05 09:31:00,
2013-04-05 05:33:00,40.1,10.4,29.97,WSW,248,0.0,0.0,29,5.14,,---,0.00,VWS V14.00,2013-04-05 09:33:00,
2013-04-05 05:35:00,39.9,10.2,29.94,WSW,248,0.0,0.0,29,5.14,,---,0.00,VWS V14.00,2013-04-05 09:35:00,
2013-04-05 05:37:00,39.9,10.2,29.94,WSW,248,0.0,0.0,29,5.14,,---,0.00,VWS V14.00,2013-04-05 09:37:00,
2013-04-05 05:40:00,40.5,11.5,29.94,WSW,248,0.0,0.0,30,5.14,,---,0.00,VWS V14.00,2013-04-05 09:40:00,
2013-04-05 05:44:00,39.9,11.0,29.94,WSW,248,0.0,0.0,30,5.14,,---,0.00,VWS V14.00,2013-04-05 09:44:00,
2013-04-05 05:46:00,39.9,11.0,29.94,WSW,248,0.0,0.0,30,5.14,,---,0.00,VWS V14.00,2013-04-05 09:46:00,
2013-04-05 05:49:00,39.9,11.0,29.94,WSW,248,0.0,0.0,30,5.14,,---,0.00,VWS V14.00,2013-04-05 09:49:00,
2013-04-05 05:53:00,40.3,11.3,29.97,WSW,248,0.0,0.0,30,5.14,,---,0.00,VWS V14.00,2013-04-05 09:53:00,
2013-04-05 05:55:00,40.5,11.5,29.97,WSW,248,0.0,0.0,30,5.14,,---,0.00,VWS V14.00,2013-04-05 09:55:00,
2013-04-05 05:56:00,40.6,12.4,29.97,WSW,248,0.0,0.0,31,5.14,,---,0.00,VWS V14.00,2013-04-05 09:56:00,
2013-04-05 05:58:00,40.3,11.3,29.97,WSW,248,0.0,0.0,30,5.14,,---,0.00,VWS V14.00,2013-04-05 09:58:00,
2013-04-05 06:00:00,40.6,12.4,29.97,WSW,248,0.0,0.0,31,5.14,,---,0.00,VWS V14.00,2013-04-05 10:00:00,
2013-04-05 06:02:00,41.2,13.6,29.97,WSW,248,0.0,0.0,32,5.14,,---,0.00,VWS V14.00,2013-04-05 10:02:00,
2013-04-05 06:04:00,41.2,12.9,29.97,WSW,248,0.0,0.0,31,5.14,,---,0.00,VWS V14.00,2013-04-05 10:04:00,
2013-04-05 06:05:00,41.0,12.7,29.94,WSW,248,0.0,0.0,31,5.14,,---,0.00,VWS V14.00,2013-04-05 10:05:00,
2013-04-05 06:10:00,40.8,12.5,29.94,WSW,248,0.0,0.0,31,5.14,,---,0.00,VWS V14.00,2013-04-05 10:10:00,
2013-04-05 06:12:00,41.0,12.7,29.94,WSW,248,0.0,0.0,31,5.14,,---,0.00,VWS V14.00,2013-04-05 10:12:00,
2013-04-05 06:17:00,41.4,13.7,29.94,WSW,248,0.0,0.0,32,5.14,,---,0.00,VWS V14.00,2013-04-05 10:17:00,
2013-04-05 06:18:00,41.2,13.6,29.94,WSW,248,0.0,0.0,32,5.14,,---,0.00,VWS V14.00,2013-04-05 10:18:00,
2013-04-05 06:19:00,41.0,12.7,29.94,WSW,248,0.0,0.0,31,5.14,,---,0.00,VWS V14.00,2013-04-05 10:19:00,
2013-04-05 06:22:00,40.5,12.2,29.94,WSW,248,0.0,0.0,31,5.14,,---,0.00,VWS V14.00,2013-04-05 10:22:00,
2013-04-05 06:25:00,40.3,12.1,29.94,WSW,248,0.0,0.0,31,5.14,,---,0.00,VWS V14.00,2013-04-05 10:25:00,
2013-04-05 06:28:00,40.1,11.9,29.94,SW,225,0.0,0.0,31,5.14,,---,0.00,VWS V14.00,2013-04-05 10:28:00,
2013-04-05 06:29:00,40.3,12.1,29.94,SW,225,0.0,0.0,31,5.14,,---,0.00,VWS V14.00,2013-04-05 10:29:00,
2013-04-05 06:31:00,40.1,11.9,29.94,SW,225,0.0,0.0,31,5.14,,---,0.00,VWS V14.00,2013-04-05 10:31:00,
2013-04-05 06:33:00,40.5,12.9,29.94,SW,225,0.0,1.3,32,5.14,,---,0.00,VWS V14.00,2013-04-05 10:33:00,
2013-04-05 06:35:00,40.3,12.1,29.94,SW,225,0.0,0.0,31,5.14,,---,0.00,VWS V14.00,2013-04-05 10:35:00,
2013-04-05 06:36:00,40.1,11.9,29.94,SW,225,0.0,0.0,31,5.14,,---,0.00,VWS V14.00,2013-04-05 10:36:00,
2013-04-05 06:40:00,39.9,12.5,29.94,ESE,112,0.0,2.7,32,5.14,,---,0.00,VWS V14.00,2013-04-05 10:40:00,
2013-04-05 06:42:00,39.9,12.5,29.94,ESE,112,0.0,0.0,32,5.14,,---,0.00,VWS V14.00,2013-04-05 10:42:00,
2013-04-05 06:46:00,39.9,12.5,29.94,ESE,112,1.1,1.1,32,5.14,,---,0.00,VWS V14.00,2013-04-05 10:46:00,
2013-04-05 06:47:00,39.9,12.5,29.94,ESE,112,0.0,1.6,32,5.14,,---,0.00,VWS V14.00,2013-04-05 10:47:00,
2013-04-05 06:51:00,39.9,12.5,29.94,ESE,112,0.0,0.0,32,5.14,,---,0.00,VWS V14.00,2013-04-05 10:51:00,
2013-04-05 06:52:00,39.9,12.5,29.94,ESE,112,0.0,0.0,32,5.14,,---,0.00,VWS V14.00,2013-04-05 10:52:00,
2013-04-05 06:54:00,39.7,12.3,29.94,ESE,112,0.0,0.0,32,5.14,,---,0.00,VWS V14.00,2013-04-05 10:54:00,
2013-04-05 06:56:00,39.9,12.5,29.94,ESE,112,1.1,1.6,32,5.14,,---,0.00,VWS V14.00,2013-04-05 10:56:00,
2013-04-05 07:00:00,41.5,15.9,29.94,ESE,112,0.0,0.0,35,5.14,,---,0.00,VWS V14.00,2013-04-05 11:00:00,
2013-04-05 07:03:00,40.8,14.6,29.94,ESE,112,0.0,0.0,34,5.14,,---,0.00,VWS V14.00,2013-04-05 11:03:00,
2013-04-05 07:04:00,40.6,13.8,29.94,ESE,112,0.0,0.0,33,5.14,,---,0.00,VWS V14.00,2013-04-05 11:04:00,
2013-04-05 07:10:00,41.5,15.3,29.94,ESE,112,0.0,0.0,34,5.14,,---,0.00,VWS V14.00,2013-04-05 11:10:00,
2013-04-05 07:11:00,41.4,14.4,29.94,ESE,112,0.0,0.0,33,5.14,,---,0.00,VWS V14.00,2013-04-05 11:11:00,
2013-04-05 07:14:00,41.2,14.3,29.94,ESE,112,0.0,0.0,33,5.14,,---,0.00,VWS V14.00,2013-04-05 11:14:00,
2013-04-05 07:18:00,40.6,13.8,29.94,ESE,112,0.0,0.0,33,5.14,,---,0.00,VWS V14.00,2013-04-05 11:18:00,
2013-04-05 07:21:00,40.5,13.6,29.94,ESE,112,0.9,0.9,33,5.14,,---,0.00,VWS V14.00,2013-04-05 11:21:00,
2013-04-05 07:22:00,40.5,13.6,29.94,ESE,112,1.3,2.2,33,5.14,,---,0.00,VWS V14.00,2013-04-05 11:22:00,
2013-04-05 07:25:00,40.3,13.5,29.94,ESE,112,0.0,2.0,33,5.14,,---,0.00,VWS V14.00,2013-04-05 11:25:00,
2013-04-05 07:27:00,40.3,13.5,29.94,ENE,68,0.0,0.0,33,5.14,,---,0.00,VWS V14.00,2013-04-05 11:27:00,
2013-04-05 07:28:00,40.3,13.5,29.94,ENE,68,0.0,0.0,33,5.14,,---,0.00,VWS V14.00,2013-04-05 11:28:00,
2013-04-05 07:29:00,40.3,13.5,29.94,ENE,68,0.0,0.0,33,5.14,,---,0.00,VWS V14.00,2013-04-05 11:29:00,
2013-04-05 07:35:00,40.3,13.5,29.91,ENE,68,1.6,2.2,33,5.14,,---,0.00,VWS V14.00,2013-04-05 11:35:00,
2013-04-05 07:38:00,40.3,13.5,29.91,ENE,68,1.1,1.1,33,5.14,,---,0.00,VWS V14.00,2013-04-05 11:38:00,
2013-04-05 07:42:00,40.3,13.5,29.91,ENE,68,0.0,0.0,33,5.14,,---,0.00,VWS V14.00,2013-04-05 11:42:00,
2013-04-05 07:43:00,40.3,13.5,29.91,ENE,68,0.0,0.0,33,5.14,,---,0.00,VWS V14.00,2013-04-05 11:43:00,
2013-04-05 07:44:00,40.5,13.6,29.91,ENE,68,0.0,0.0,33,5.14,,---,0.00,VWS V14.00,2013-04-05 11:44:00,
2013-04-05 07:46:00,40.5,13.6,29.91,ENE,68,0.0,0.0,33,5.14,,---,0.00,VWS V14.00,2013-04-05 11:46:00,
2013-04-05 07:48:00,40.5,13.6,29.91,ENE,68,2.5,2.7,33,5.14,,---,0.00,VWS V14.00,2013-04-05 11:48:00,
2013-04-05 07:55:00,40.8,14.6,29.91,ENE,68,2.0,2.9,34,5.14,,---,0.00,VWS V14.00,2013-04-05 11:55:00,
2013-04-05 07:56:00,40.8,14.6,29.91,ENE,68,0.9,2.0,34,5.14,,---,0.00,VWS V14.00,2013-04-05 11:56:00,
2013-04-05 07:57:00,40.8,14.6,29.91,ENE,68,0.0,2.0,34,5.14,,---,0.00,VWS V14.00,2013-04-05 11:57:00,
2013-04-05 08:00:00,41.0,14.1,29.91,ENE,68,0.0,0.0,33,5.14,,---,0.00,VWS V14.00,2013-04-05 12:00:00,
2013-04-05 08:03:00,41.2,14.3,29.91,ENE,68,0.0,0.0,33,5.14,,---,0.00,VWS V14.00,2013-04-05 12:03:00,
2013-04-05 08:04:00,41.2,15.0,29.91,ENE,68,0.0,2.2,34,5.14,,---,0.00,VWS V14.00,2013-04-05 12:04:00,
2013-04-05 08:07:00,41.4,15.1,29.91,ENE,68,0.0,0.0,34,5.14,,---,0.00,VWS V14.00,2013-04-05 12:07:00,
2013-04-05 08:10:00,41.4,15.1,29.91,ENE,68,0.0,0.0,34,5.14,,---,0.00,VWS V14.00,2013-04-05 12:10:00,
2013-04-05 08:12:00,41.4,15.1,29.91,ENE,68,0.0,0.0,34,5.14,,---,0.00,VWS V14.00,2013-04-05 12:12:00,
2013-04-05 08:14:00,41.4,15.1,29.91,ENE,68,0.0,0.0,34,5.14,,---,0.00,VWS V14.00,2013-04-05 12:14:00,
2013-04-05 08:17:00,41.4,15.1,29.91,ENE,68,0.0,0.9,34,5.14,,---,0.00,VWS V14.00,2013-04-05 12:17:00,
2013-04-05 08:23:00,41.5,15.3,29.91,ENE,68,0.0,0.0,34,5.14,,---,0.00,VWS V14.00,2013-04-05 12:23:00,
2013-04-05 08:24:00,41.5,15.3,29.91,ENE,68,0.0,0.0,34,5.14,,---,0.00,VWS V14.00,2013-04-05 12:24:00,
2013-04-05 08:25:00,41.5,15.3,29.91,ENE,68,0.0,0.0,34,5.14,,---,0.00,VWS V14.00,2013-04-05 12:25:00,
2013-04-05 08:31:00,41.5,15.3,29.91,ENE,68,0.0,0.0,34,5.14,,---,0.00,VWS V14.00,2013-04-05 12:31:00,
2013-04-05 08:35:00,41.5,15.3,29.91,ENE,68,0.0,0.0,34,5.14,,---,0.00,VWS V14.00,2013-04-05 12:35:00,
2013-04-05 08:39:00,41.7,15.4,29.91,ENE,68,0.0,2.5,34,5.14,,---,0.00,VWS V14.00,2013-04-05 12:39:00,
2013-04-05 08:41:00,41.7,15.4,29.91,ENE,68,0.0,0.0,34,5.14,,---,0.00,VWS V14.00,2013-04-05 12:41:00,
2013-04-05 08:42:00,41.7,15.4,29.91,ENE,68,0.0,0.0,34,5.14,,---,0.00,VWS V14.00,2013-04-05 12:42:00,
2013-04-05 08:46:00,41.9,15.6,29.91,NE,45,2.9,2.9,34,5.14,,---,0.00,VWS V14.00,2013-04-05 12:46:00,
2013-04-05 08:47:00,41.9,15.6,29.91,NE,45,2.0,3.6,34,5.14,,---,0.00,VWS V14.00,2013-04-05 12:47:00,
2013-04-05 08:49:00,42.1,16.4,29.91,NE,45,2.9,2.9,35,5.14,,---,0.00,VWS V14.00,2013-04-05 12:49:00,
2013-04-05 08:52:00,42.1,16.4,29.91,NE,45,0.0,0.0,35,5.14,,---,0.00,VWS V14.00,2013-04-05 12:52:00,
2013-04-05 08:56:00,42.3,16.6,29.91,NE,45,0.0,0.0,35,5.14,,---,0.00,VWS V14.00,2013-04-05 12:56:00,
2013-04-05 08:58:00,42.3,16.6,29.91,NE,45,0.0,0.0,35,5.14,,---,0.00,VWS V14.00,2013-04-05 12:58:00,
2013-04-05 08:59:00,42.4,17.4,29.91,NE,45,0.0,0.0,36,5.14,,---,0.00,VWS V14.00,2013-04-05 12:59:00,
2013-04-05 09:02:00,42.4,17.4,29.91,NE,45,2.5,3.6,36,5.14,,---,0.00,VWS V14.00,2013-04-05 13:02:00,
2013-04-05 09:05:00,42.6,17.5,29.91,NNE,22,3.4,3.8,36,5.14,,---,0.00,VWS V14.00,2013-04-05 13:05:00,
2013-04-05 09:06:00,42.8,17.7,29.91,NNE,22,3.8,3.8,36,5.14,,---,0.00,VWS V14.00,2013-04-05 13:06:00,
2013-04-05 09:10:00,43.2,18.0,29.91,NNE,22,2.2,2.9,36,5.14,,---,0.00,VWS V14.00,2013-04-05 13:10:00,
2013-04-05 09:11:00,43.2,18.7,29.91,NNE,22,2.5,2.9,37,5.14,,---,0.00,VWS V14.00,2013-04-05 13:11:00,
2013-04-05 09:12:00,43.3,18.8,29.91,NNE,22,2.9,3.4,37,5.14,,---,0.00,VWS V14.00,2013-04-05 13:12:00,
2013-04-05 09:14:00,43.5,19.0,29.91,NNE,22,2.9,3.1,37,5.14,,---,0.00,VWS V14.00,2013-04-05 13:14:00,
2013-04-05 09:17:00,43.7,19.8,29.91,NNE,22,0.9,2.7,38,5.14,,---,0.00,VWS V14.00,2013-04-05 13:17:00,
2013-04-05 09:20:00,44.1,20.1,29.91,NNE,22,1.6,2.2,38,5.14,,---,0.00,VWS V14.00,2013-04-05 13:20:00,
2013-04-05 09:21:00,44.2,20.3,29.91,North,0,2.9,4.3,38,5.14,,---,0.00,VWS V14.00,2013-04-05 13:21:00,
2013-04-05 09:22:00,44.2,20.3,29.91,NNE,22,2.5,3.8,38,5.14,,---,0.00,VWS V14.00,2013-04-05 13:22:00,
2013-04-05 09:24:00,44.8,20.1,29.91,NNE,22,2.5,2.5,37,5.14,,---,0.00,VWS V14.00,2013-04-05 13:24:00,
2013-04-05 09:26:00,45.0,20.3,29.91,NW,315,5.4,5.4,37,5.14,,---,0.00,VWS V14.00,2013-04-05 13:26:00,
2013-04-05 09:29:00,45.1,20.4,29.91,NNW,338,1.6,2.7,37,5.14,,---,0.00,VWS V14.00,2013-04-05 13:29:00,
2013-04-05 09:30:00,45.3,20.6,29.91,NNW,338,5.4,5.4,37,5.14,,---,0.00,VWS V14.00,2013-04-05 13:30:00,
2013-04-05 09:32:00,45.5,20.8,29.91,North,0,0.9,5.6,37,5.14,,---,0.00,VWS V14.00,2013-04-05 13:32:00,
2013-04-05 09:35:00,46.4,21.6,29.91,NNW,338,3.8,3.8,37,5.14,,---,0.00,VWS V14.00,2013-04-05 13:35:00,
2013-04-05 09:37:00,46.6,21.7,29.91,NNW,338,2.9,4.0,37,5.14,,---,0.00,VWS V14.00,2013-04-05 13:37:00,
2013-04-05 09:40:00,46.8,21.9,29.91,NNE,22,2.7,3.4,37,5.14,,---,0.00,VWS V14.00,2013-04-05 13:40:00,
2013-04-05 09:42:00,46.6,21.7,29.91,NNW,338,2.5,3.4,37,5.14,,---,0.00,VWS V14.00,2013-04-05 13:42:00,
2013-04-05 09:45:00,46.9,22.0,29.91,NNE,22,2.9,3.1,37,5.14,,---,0.00,VWS V14.00,2013-04-05 13:45:00,
2013-04-05 09:47:00,47.1,22.2,29.91,NW,315,2.0,2.7,37,5.14,,---,0.00,VWS V14.00,2013-04-05 13:47:00,
2013-04-05 09:48:00,47.1,22.2,29.91,NNW,338,2.2,2.2,37,5.14,,---,0.00,VWS V14.00,2013-04-05 13:48:00,
2013-04-05 09:49:00,47.1,22.2,29.91,NW,315,2.9,2.9,37,5.14,,---,0.00,VWS V14.00,2013-04-05 13:49:00,
2013-04-05 09:55:00,46.8,20.6,29.88,North,0,2.5,4.0,35,5.14,,---,0.00,VWS V14.00,2013-04-05 13:55:00,
2013-04-05 09:56:00,46.8,20.6,29.88,NNW,338,4.9,5.8,35,5.14,,---,0.00,VWS V14.00,2013-04-05 13:56:00,
2013-04-05 09:57:00,46.6,20.4,29.88,North,0,4.3,4.9,35,5.14,,---,0.00,VWS V14.00,2013-04-05 13:57:00,
2013-04-05 09:59:00,46.4,19.6,29.88,NNE,22,0.0,2.5,34,5.14,,---,0.00,VWS V14.00,2013-04-05 13:59:00,
2013-04-05 10:00:00,46.6,20.4,29.88,North,0,4.3,5.8,35,5.14,,---,0.00,VWS V14.00,2013-04-05 14:00:00,
2013-04-05 10:06:00,46.4,19.6,29.88,North,0,3.1,4.3,34,5.14,,---,0.00,VWS V14.00,2013-04-05 14:06:00,
2013-04-05 10:07:00,46.2,19.4,29.88,NNW,338,4.0,6.0,34,5.14,,---,0.00,VWS V14.00,2013-04-05 14:07:00,
2013-04-05 10:11:00,46.2,19.4,29.88,North,0,4.3,5.4,34,5.14,,---,0.00,VWS V14.00,2013-04-05 14:11:00,
2013-04-05 10:12:00,46.2,19.4,29.88,North,0,5.4,6.0,34,5.14,,---,0.00,VWS V14.00,2013-04-05 14:12:00,
2013-04-05 10:14:00,46.0,19.3,29.88,NNE,22,5.8,6.0,34,5.14,,---,0.00,VWS V14.00,2013-04-05 14:14:00,
2013-04-05 10:17:00,45.7,18.2,29.88,NNE,22,2.9,5.8,33,5.14,,---,0.00,VWS V14.00,2013-04-05 14:17:00,
2013-04-05 10:19:00,45.9,19.1,29.88,NNE,22,3.1,6.3,34,5.14,,---,0.00,VWS V14.00,2013-04-05 14:19:00,
2013-04-05 10:20:00,45.9,19.1,29.88,NNE,22,2.7,4.0,34,5.14,,---,0.00,VWS V14.00,2013-04-05 14:20:00,
2013-04-05 10:24:00,46.9,20.0,29.88,North,0,3.8,6.3,34,5.14,,---,0.00,VWS V14.00,2013-04-05 14:24:00,
2013-04-05 10:26:00,47.7,21.4,29.88,NNE,22,3.1,3.8,35,5.14,,---,0.00,VWS V14.00,2013-04-05 14:26:00,
2013-04-05 10:27:00,48.4,21.3,29.88,North,0,2.9,4.0,34,5.14,,---,0.00,VWS V14.00,2013-04-05 14:27:00,
2013-04-05 10:30:00,50.2,22.2,29.88,North,0,3.6,4.0,33,5.14,,---,0.00,VWS V14.00,2013-04-05 14:30:00,
2013-04-05 10:33:00,51.1,22.3,29.88,North,0,3.8,3.8,32,5.14,,---,0.00,VWS V14.00,2013-04-05 14:33:00,
2013-04-05 10:37:00,52.5,22.8,29.85,NNE,22,5.4,5.4,31,5.14,,---,0.00,VWS V14.00,2013-04-05 14:37:00,
2013-04-05 10:42:00,52.9,20.7,29.85,NNE,22,2.9,3.4,28,5.14,,---,0.00,VWS V14.00,2013-04-05 14:42:00,
2013-04-05 10:43:00,53.2,21.0,29.85,North,0,4.0,4.3,28,5.14,,---,0.00,VWS V14.00,2013-04-05 14:43:00,
2013-04-05 10:45:00,53.2,20.1,29.85,NW,315,2.5,3.6,27,5.14,,---,0.00,VWS V14.00,2013-04-05 14:45:00,
2013-04-05 10:46:00,53.6,20.5,29.85,NNE,22,1.3,2.7,27,5.14,,---,0.00,VWS V14.00,2013-04-05 14:46:00,
2013-04-05 10:47:00,53.8,19.7,29.85,NNE,22,2.0,2.9,26,5.14,,---,0.00,VWS V14.00,2013-04-05 14:47:00,
2013-04-05 10:50:00,54.5,20.3,29.85,NNE,22,3.6,3.6,26,5.14,,---,0.00,VWS V14.00,2013-04-05 14:50:00,
2013-04-05 10:53:00,54.9,20.6,29.85,North,0,4.7,4.7,26,5.14,,---,0.00,VWS V14.00,2013-04-05 14:53:00,
2013-04-05 10:54:00,55.2,21.0,29.85,NNW,338,3.1,4.7,26,5.14,,---,0.00,VWS V14.00,2013-04-05 14:54:00,
2013-04-05 10:58:00,55.9,20.6,29.85,NNW,338,3.6,3.6,25,5.14,,---,0.00,VWS V14.00,2013-04-05 14:58:00,
2013-04-05 10:59:00,56.1,20.8,29.85,NNE,22,2.0,4.0,25,5.14,,---,0.00,VWS V14.00,2013-04-05 14:59:00,
2013-04-05 11:01:00,56.7,21.3,29.85,NNE,22,2.7,5.4,25,5.14,,---,0.00,VWS V14.00,2013-04-05 15:01:00,
2013-04-05 11:05:00,57.9,21.4,29.85,NNE,22,0.0,0.0,24,5.14,,---,0.00,VWS V14.00,2013-04-05 15:05:00,
2013-04-05 11:07:00,57.9,19.3,29.85,NNW,338,3.8,4.9,22,5.14,,---,0.00,VWS V14.00,2013-04-05 15:07:00,
2013-04-05 11:11:00,57.9,19.3,29.85,NNE,22,3.1,4.5,22,5.14,,---,0.00,VWS V14.00,2013-04-05 15:11:00,
2013-04-05 11:12:00,57.6,19.0,29.85,NE,45,3.6,6.3,22,5.14,,---,0.00,VWS V14.00,2013-04-05 15:12:00,
2013-04-05 11:14:00,58.1,19.5,29.85,NNW,338,5.6,5.6,22,5.14,,---,0.00,VWS V14.00,2013-04-05 15:14:00,
2013-04-05 11:16:00,58.5,19.8,29.85,NW,315,0.0,5.6,22,5.14,,---,0.00,VWS V14.00,2013-04-05 15:16:00,
2013-04-05 11:21:00,59.4,20.5,29.85,NW,315,2.9,3.6,22,5.14,,---,0.00,VWS V14.00,2013-04-05 15:21:00,
2013-04-05 11:22:00,59.7,20.8,29.85,NW,315,2.9,2.9,22,5.14,,---,0.00,VWS V14.00,2013-04-05 15:22:00,
2013-04-05 11:23:00,60.1,21.1,29.85,NW,315,3.8,3.8,22,5.14,,---,0.00,VWS V14.00,2013-04-05 15:23:00,
2013-04-05 11:27:00,61.0,18.5,29.85,NE,45,2.5,3.1,19,5.14,,---,0.00,VWS V14.00,2013-04-05 15:27:00,
2013-04-05 11:30:00,61.5,18.9,29.85,North,0,2.7,3.4,19,5.14,,---,0.00,VWS V14.00,2013-04-05 15:30:00,
2013-04-05 11:34:00,61.0,18.5,29.82,North,0,4.3,4.9,19,5.14,,---,0.00,VWS V14.00,2013-04-05 15:34:00,
2013-04-05 11:36:00,61.0,18.5,29.82,NNE,22,3.6,4.3,19,5.14,,---,0.00,VWS V14.00,2013-04-05 15:36:00,
2013-04-05 11:37:00,60.4,18.0,29.82,ENE,68,6.5,7.6,19,5.14,,---,0.00,VWS V14.00,2013-04-05 15:37:00,
2013-04-05 11:40:00,58.5,16.4,29.82,NE,45,5.6,5.6,19,5.14,,---,0.00,VWS V14.00,2013-04-05 15:40:00,
2013-04-05 11:41:00,58.1,16.1,29.82,East,90,2.9,4.0,19,5.14,,---,0.00,VWS V14.00,2013-04-05 15:41:00,
2013-04-05 11:44:00,56.8,16.2,29.82,NE,45,4.0,4.9,20,5.14,,---,0.00,VWS V14.00,2013-04-05 15:44:00,
2013-04-05 11:46:00,55.9,15.5,29.82,ENE,68,5.6,7.4,20,5.14,,---,0.00,VWS V14.00,2013-04-05 15:46:00,
2013-04-05 11:47:00,55.9,15.5,29.82,ENE,68,5.4,6.0,20,5.14,,---,0.00,VWS V14.00,2013-04-05 15:47:00,
2013-04-05 11:51:00,57.4,15.5,29.85,ENE,68,2.9,3.6,19,5.14,,---,0.00,VWS V14.00,2013-04-05 15:51:00,
2013-04-05 11:52:00,56.8,16.2,29.85,ENE,68,2.9,6.5,20,5.14,,---,0.00,VWS V14.00,2013-04-05 15:52:00,
2013-04-05 11:57:00,59.0,16.8,29.85,NE,45,3.8,3.8,19,5.14,,---,0.00,VWS V14.00,2013-04-05 15:57:00,
2013-04-05 12:00:00,58.5,16.4,29.85,NNE,22,5.8,5.8,19,5.14,,---,0.00,VWS V14.00,2013-04-05 16:00:00,
2013-04-05 12:01:00,58.1,16.1,29.85,North,0,4.3,5.8,19,5.14,,---,0.00,VWS V14.00,2013-04-05 16:01:00,
2013-04-05 12:02:00,59.0,16.8,29.85,NNE,22,3.1,4.9,19,5.14,,---,0.00,VWS V14.00,2013-04-05 16:02:00,
2013-04-05 12:04:00,58.6,16.5,29.82,NE,45,4.3,4.9,19,5.14,,---,0.00,VWS V14.00,2013-04-05 16:04:00,
2013-04-05 12:09:00,59.4,17.1,29.82,North,0,6.7,6.7,19,5.14,,---,0.00,VWS V14.00,2013-04-05 16:09:00,
2013-04-05 12:10:00,59.4,17.1,29.82,NNE,22,4.0,6.7,19,5.14,,---,0.00,VWS V14.00,2013-04-05 16:10:00,
2013-04-05 12:14:00,59.9,17.6,29.82,NNE,22,5.8,5.8,19,5.14,,---,0.00,VWS V14.00,2013-04-05 16:14:00,
2013-04-05 12:16:00,60.1,17.7,29.82,NE,45,3.6,5.8,19,5.14,,---,0.00,VWS V14.00,2013-04-05 16:16:00,
2013-04-05 12:21:00,59.9,17.6,29.82,North,0,2.0,6.3,19,5.14,,---,0.00,VWS V14.00,2013-04-05 16:21:00,
2013-04-05 12:22:00,60.3,17.9,29.82,NNW,338,3.8,5.4,19,5.14,,---,0.00,VWS V14.00,2013-04-05 16:22:00,
2013-04-05 12:24:00,60.4,18.0,29.82,North,0,5.4,6.7,19,5.14,,---,0.00,VWS V14.00,2013-04-05 16:24:00,
2013-04-05 12:26:00,60.3,17.9,29.82,North,0,5.4,6.0,19,5.14,,---,0.00,VWS V14.00,2013-04-05 16:26:00,
2013-04-05 12:28:00,60.1,17.7,29.82,NNE,22,5.4,5.8,19,5.14,,---,0.00,VWS V14.00,2013-04-05 16:28:00,
2013-04-05 12:29:00,60.3,17.9,29.82,North,0,4.7,5.4,19,5.14,,---,0.00,VWS V14.00,2013-04-05 16:29:00,
2013-04-05 12:30:00,60.3,17.9,29.82,NNE,22,3.1,5.8,19,5.14,,---,0.00,VWS V14.00,2013-04-05 16:30:00,
2013-04-05 12:35:00,60.8,14.4,29.79,NW,315,6.0,6.0,16,5.14,,---,0.00,VWS V14.00,2013-04-05 16:35:00,
2013-04-05 12:37:00,60.6,15.6,29.79,ESE,112,5.4,8.5,17,5.14,,---,0.00,VWS V14.00,2013-04-05 16:37:00,
2013-04-05 12:39:00,61.0,14.5,29.79,NNW,338,3.6,5.6,16,5.14,,---,0.00,VWS V14.00,2013-04-05 16:39:00,
2013-04-05 12:43:00,61.2,14.6,29.79,North,0,3.8,8.1,16,5.14,,---,0.00,VWS V14.00,2013-04-05 16:43:00,
2013-04-05 12:44:00,61.0,14.5,29.79,NNW,338,1.6,7.2,16,5.14,,---,0.00,VWS V14.00,2013-04-05 16:44:00,
2013-04-05 12:47:00,60.8,14.4,29.79,NNE,22,1.1,5.8,16,5.14,,---,0.00,VWS V14.00,2013-04-05 16:47:00,
2013-04-05 12:49:00,60.8,14.4,29.79,WNW,292,2.9,5.6,16,5.14,,---,0.00,VWS V14.00,2013-04-05 16:49:00,
2013-04-05 12:50:00,61.2,14.6,29.79,NNW,338,3.6,4.7,16,5.14,,---,0.00,VWS V14.00,2013-04-05 16:50:00,
2013-04-05 12:51:00,61.7,15.1,29.79,NW,315,2.7,3.6,16,5.14,,---,0.00,VWS V14.00,2013-04-05 16:51:00,
2013-04-05 12:55:00,59.9,17.6,29.79,SE,135,2.7,4.9,19,5.14,,---,0.00,VWS V14.00,2013-04-05 16:55:00,
2013-04-05 12:58:00,59.7,17.4,29.79,NE,45,7.4,7.4,19,5.14,,---,0.00,VWS V14.00,2013-04-05 16:58:00,
2013-04-05 13:00:00,57.4,15.5,29.79,NE,45,4.3,7.2,19,5.14,,---,0.00,VWS V14.00,2013-04-05 17:00:00,
2013-04-05 13:01:00,57.2,15.3,29.79,East,90,6.0,7.4,19,5.14,,---,0.00,VWS V14.00,2013-04-05 17:01:00,
2013-04-05 13:03:00,56.8,12.5,29.79,ENE,68,3.1,7.2,17,5.14,,---,0.00,VWS V14.00,2013-04-05 17:03:00,
2013-04-05 13:04:00,56.8,12.5,29.79,ENE,68,3.8,4.3,17,5.14,,---,0.00,VWS V14.00,2013-04-05 17:04:00,
2013-04-05 13:05:00,56.7,12.4,29.76,ENE,68,7.6,7.6,17,5.14,,---,0.00,VWS V14.00,2013-04-05 17:05:00,
2013-04-05 13:09:00,55.6,11.5,29.76,ENE,68,5.8,6.0,17,5.14,,---,0.00,VWS V14.00,2013-04-05 17:09:00,
2013-04-05 13:10:00,55.8,11.6,29.76,NE,45,6.5,6.7,17,5.14,,---,0.00,VWS V14.00,2013-04-05 17:10:00,
2013-04-05 13:12:00,55.6,11.5,29.76,NNE,22,6.0,7.2,17,5.14,,---,0.00,VWS V14.00,2013-04-05 17:12:00,
2013-04-05 13:14:00,55.4,11.3,29.76,ESE,112,4.0,6.0,17,5.14,,---,0.00,VWS V14.00,2013-04-05 17:14:00,
2013-04-05 13:15:00,55.2,12.5,29.76,ESE,112,7.8,8.7,18,5.14,,---,0.00,VWS V14.00,2013-04-05 17:15:00,
2013-04-05 13:19:00,54.5,11.9,29.76,SSE,158,7.4,7.8,18,5.14,,---,0.00,VWS V14.00,2013-04-05 17:19:00,
2013-04-05 13:20:00,54.3,11.7,29.79,ESE,112,7.8,9.8,18,5.14,,---,0.00,VWS V14.00,2013-04-05 17:20:00,
2013-04-05 13:21:00,54.5,11.9,29.79,SE,135,7.6,7.6,18,5.14,,---,0.00,VWS V14.00,2013-04-05 17:21:00,
2013-04-05 13:22:00,54.5,11.9,29.79,SE,135,8.5,8.5,18,5.14,,---,0.00,VWS V14.00,2013-04-05 17:22:00,
2013-04-05 13:25:00,55.6,11.5,29.79,NE,45,2.9,6.3,17,5.14,,---,0.00,VWS V14.00,2013-04-05 17:25:00,
2013-04-05 13:26:00,55.8,11.6,29.79,SE,135,6.7,7.8,17,5.14,,---,0.00,VWS V14.00,2013-04-05 17:26:00,
2013-04-05 13:28:00,55.6,11.5,29.79,East,90,4.9,7.6,17,5.14,,---,0.00,VWS V14.00,2013-04-05 17:28:00,
2013-04-05 13:29:00,55.6,11.5,29.79,SSE,158,8.5,8.5,17,5.14,,---,0.00,VWS V14.00,2013-04-05 17:29:00,
2013-04-05 13:32:00,55.6,11.5,29.79,NE,45,5.4,7.2,17,5.14,,---,0.00,VWS V14.00,2013-04-05 17:32:00,
2013-04-05 13:34:00,55.8,11.6,29.79,East,90,5.6,8.7,17,5.14,,---,0.00,VWS V14.00,2013-04-05 17:34:00,
2013-04-05 13:38:00,55.8,11.6,29.79,ESE,112,6.5,8.5,17,5.14,,---,0.00,VWS V14.00,2013-04-05 17:38:00,
2013-04-05 13:40:00,55.9,11.8,29.79,ESE,112,6.0,6.0,17,5.14,,---,0.00,VWS V14.00,2013-04-05 17:40:00,
2013-04-05 13:43:00,54.7,12.0,29.79,ESE,112,5.6,10.3,18,5.14,,---,0.00,VWS V14.00,2013-04-05 17:43:00,
2013-04-05 13:45:00,54.9,12.2,29.79,SE,135,6.3,7.6,18,5.14,,---,0.00,VWS V14.00,2013-04-05 17:45:00,
2013-04-05 13:47:00,55.6,11.5,29.79,ENE,68,4.9,5.6,17,5.14,,---,0.00,VWS V14.00,2013-04-05 17:47:00,
2013-04-05 13:50:00,55.9,11.8,29.82,ENE,68,6.3,6.3,17,5.14,,---,0.00,VWS V14.00,2013-04-05 17:50:00,
2013-04-05 13:51:00,55.8,11.6,29.82,ENE,68,3.8,6.5,17,5.14,,---,0.00,VWS V14.00,2013-04-05 17:51:00,
2013-04-05 13:56:00,56.1,11.9,29.82,ENE,68,7.4,7.4,17,5.14,,---,0.00,VWS V14.00,2013-04-05 17:56:00,
2013-04-05 13:57:00,56.5,12.2,29.82,ENE,68,2.7,7.4,17,5.14,,---,0.00,VWS V14.00,2013-04-05 17:57:00,
2013-04-05 14:01:00,55.2,12.5,29.82,ENE,68,5.4,7.8,18,5.14,,---,0.00,VWS V14.00,2013-04-05 18:01:00,
2013-04-05 14:02:00,55.6,11.5,29.82,ENE,68,3.4,5.6,17,5.14,,---,0.00,VWS V14.00,2013-04-05 18:02:00,
2013-04-05 14:04:00,55.6,11.5,29.79,NE,45,6.0,6.5,17,5.14,,---,0.00,VWS V14.00,2013-04-05 18:04:00,
2013-04-05 14:06:00,55.8,11.6,29.79,ENE,68,4.9,6.0,17,5.14,,---,0.00,VWS V14.00,2013-04-05 18:06:00,
2013-04-05 14:09:00,55.8,11.6,29.79,ESE,112,5.4,6.0,17,5.14,,---,0.00,VWS V14.00,2013-04-05 18:09:00,
2013-04-05 14:10:00,56.3,12.1,29.79,East,90,2.5,5.6,17,5.14,,---,0.00,VWS V14.00,2013-04-05 18:10:00,
2013-04-05 14:11:00,56.3,12.1,29.79,ENE,68,6.0,6.0,17,5.14,,---,0.00,VWS V14.00,2013-04-05 18:11:00,
2013-04-05 14:15:00,56.1,11.9,29.79,NNE,22,2.7,6.0,17,5.14,,---,0.00,VWS V14.00,2013-04-05 18:15:00,
2013-04-05 14:16:00,56.1,11.9,29.79,East,90,4.3,5.4,17,5.14,,---,0.00,VWS V14.00,2013-04-05 18:16:00,
2013-04-05 14:21:00,56.3,12.1,29.76,NNE,22,6.3,6.3,17,5.14,,---,0.00,VWS V14.00,2013-04-05 18:21:00,
2013-04-05 14:22:00,56.1,11.9,29.76,NE,45,5.4,8.7,17,5.14,,---,0.00,VWS V14.00,2013-04-05 18:22:00,
2013-04-05 14:25:00,55.0,12.3,29.76,ESE,112,7.4,7.4,18,5.14,,---,0.00,VWS V14.00,2013-04-05 18:25:00,
2013-04-05 14:27:00,55.0,12.3,29.76,East,90,5.8,7.4,18,5.14,,---,0.00,VWS V14.00,2013-04-05 18:27:00,
2013-04-05 14:28:00,55.4,11.3,29.76,ESE,112,3.8,5.8,17,5.14,,---,0.00,VWS V14.00,2013-04-05 18:28:00,
2013-04-05 14:32:00,56.1,11.9,29.76,ENE,68,4.9,7.2,17,5.14,,---,0.00,VWS V14.00,2013-04-05 18:32:00,
2013-04-05 14:35:00,56.3,12.1,29.74,ENE,68,3.8,5.4,17,5.14,,---,0.00,VWS V14.00,2013-04-05 18:35:00,
2013-04-05 14:38:00,56.7,12.4,29.74,ENE,68,4.3,4.9,17,5.14,,---,0.00,VWS V14.00,2013-04-05 18:38:00,
2013-04-05 14:40:00,57.2,12.8,29.74,East,90,3.8,6.0,17,5.14,,---,0.00,VWS V14.00,2013-04-05 18:40:00,
2013-04-05 14:43:00,57.6,13.1,29.74,ENE,68,4.7,6.3,17,5.14,,---,0.00,VWS V14.00,2013-04-05 18:43:00,
2013-04-05 14:45:00,57.2,12.8,29.74,ESE,112,3.4,4.9,17,5.14,,---,0.00,VWS V14.00,2013-04-05 18:45:00,
2013-04-05 14:48:00,57.0,12.7,29.74,ESE,112,6.3,7.4,17,5.14,,---,0.00,VWS V14.00,2013-04-05 18:48:00,
2013-04-05 14:50:00,56.7,12.4,29.71,SE,135,8.1,8.5,17,5.14,,---,0.00,VWS V14.00,2013-04-05 18:50:00,
2013-04-05 14:53:00,56.7,12.4,29.71,NE,45,4.3,5.8,17,5.14,,---,0.00,VWS V14.00,2013-04-05 18:53:00,
2013-04-05 14:55:00,56.7,12.4,29.71,SSE,158,5.8,7.6,17,5.14,,---,0.00,VWS V14.00,2013-04-05 18:55:00,
2013-04-05 14:59:00,56.3,12.1,29.71,ESE,112,5.6,7.2,17,5.14,,---,0.00,VWS V14.00,2013-04-05 18:59:00,
2013-04-05 15:00:00,56.7,12.4,29.71,SE,135,6.0,7.8,17,5.14,,---,0.00,VWS V14.00,2013-04-05 19:00:00,
2013-04-05 15:07:00,56.8,12.5,29.74,ESE,112,5.6,7.6,17,5.14,,---,0.00,VWS V14.00,2013-04-05 19:07:00,
2013-04-05 15:10:00,57.0,12.7,29.74,East,90,3.8,6.3,17,5.14,,---,0.00,VWS V14.00,2013-04-05 19:10:00,
2013-04-05 15:14:00,57.0,12.7,29.74,ESE,112,6.3,7.8,17,5.14,,---,0.00,VWS V14.00,2013-04-05 19:14:00,
2013-04-05 15:16:00,56.8,12.5,29.74,ESE,112,6.0,7.4,17,5.14,,---,0.00,VWS V14.00,2013-04-05 19:16:00,
2013-04-05 15:19:00,57.0,12.7,29.74,ENE,68,3.4,6.0,17,5.14,,---,0.00,VWS V14.00,2013-04-05 19:19:00,
2013-04-05 15:21:00,57.7,13.2,29.74,East,90,6.3,6.3,17,5.14,,---,0.00,VWS V14.00,2013-04-05 19:21:00,
2013-04-05 15:24:00,58.3,13.7,29.74,SE,135,0.0,3.8,17,5.14,,---,0.00,VWS V14.00,2013-04-05 19:24:00,
2013-04-05 15:25:00,58.5,13.8,29.74,SE,135,6.3,6.3,17,5.14,,---,0.00,VWS V14.00,2013-04-05 19:25:00,
2013-04-05 15:27:00,57.9,13.4,29.74,SE,135,4.9,6.3,17,5.14,,---,0.00,VWS V14.00,2013-04-05 19:27:00,
2013-04-05 15:30:00,58.1,13.5,29.74,SE,135,4.3,6.5,17,5.14,,---,0.00,VWS V14.00,2013-04-05 19:30:00,
2013-04-05 15:34:00,57.4,12.9,29.74,SE,135,9.6,9.6,17,5.14,,---,0.00,VWS V14.00,2013-04-05 19:34:00,
2013-04-05 15:35:00,57.2,12.8,29.74,SE,135,7.6,9.6,17,5.14,,---,0.00,VWS V14.00,2013-04-05 19:35:00,
2013-04-05 15:38:00,57.2,12.8,29.74,SE,135,8.7,9.4,17,5.14,,---,0.00,VWS V14.00,2013-04-05 19:38:00,
2013-04-05 15:39:00,57.2,12.8,29.74,ESE,112,11.0,11.0,17,5.14,,---,0.00,VWS V14.00,2013-04-05 19:39:00,
2013-04-05 15:41:00,57.6,13.1,29.74,East,90,6.0,6.3,17,5.14,,---,0.00,VWS V14.00,2013-04-05 19:41:00,
2013-04-05 15:42:00,57.9,13.4,29.74,NE,45,5.4,6.0,17,5.14,,---,0.00,VWS V14.00,2013-04-05 19:42:00,
2013-04-05 15:43:00,57.4,12.9,29.74,ESE,112,4.9,7.2,17,5.14,,---,0.00,VWS V14.00,2013-04-05 19:43:00,
2013-04-05 15:46:00,57.4,12.9,29.74,SE,135,8.1,8.1,17,5.14,,---,0.00,VWS V14.00,2013-04-05 19:46:00,
2013-04-05 15:49:00,57.4,12.9,29.74,ESE,112,8.1,10.1,17,5.14,,---,0.00,VWS V14.00,2013-04-05 19:49:00,
2013-04-05 15:51:00,57.2,12.8,29.76,ESE,112,8.5,9.0,17,5.14,,---,0.00,VWS V14.00,2013-04-05 19:51:00,
2013-04-05 15:52:00,57.2,12.8,29.76,SE,135,6.5,8.5,17,5.14,,---,0.00,VWS V14.00,2013-04-05 19:52:00,
2013-04-05 15:56:00,57.2,12.8,29.76,SE,135,4.3,5.6,17,5.14,,---,0.00,VWS V14.00,2013-04-05 19:56:00,
2013-04-05 15:58:00,57.4,12.9,29.76,ENE,68,5.4,5.4,17,5.14,,---,0.00,VWS V14.00,2013-04-05 19:58:00,
2013-04-05 16:00:00,57.0,12.7,29.76,SSE,158,6.3,8.7,17,5.14,,---,0.00,VWS V14.00,2013-04-05 20:00:00,
2013-04-05 16:01:00,57.0,12.7,29.76,SE,135,6.0,6.5,17,5.14,,---,0.00,VWS V14.00,2013-04-05 20:01:00,
2013-04-05 16:05:00,57.4,12.9,29.74,SSE,158,6.3,7.6,17,5.14,,---,0.00,VWS V14.00,2013-04-05 20:05:00,
2013-04-05 16:06:00,57.4,12.9,29.74,SE,135,7.6,7.8,17,5.14,,---,0.00,VWS V14.00,2013-04-05 20:06:00,
2013-04-05 16:07:00,57.2,12.8,29.74,SSE,158,8.7,11.0,17,5.14,,---,0.00,VWS V14.00,2013-04-05 20:07:00,
2013-04-05 16:10:00,57.4,12.9,29.74,SE,135,6.5,6.5,17,5.14,,---,0.00,VWS V14.00,2013-04-05 20:10:00,
2013-04-05 16:11:00,57.4,12.9,29.74,SE,135,4.9,8.1,17,5.14,,---,0.00,VWS V14.00,2013-04-05 20:11:00,
2013-04-05 16:12:00,57.4,12.9,29.74,ESE,112,3.8,6.5,17,5.14,,---,0.00,VWS V14.00,2013-04-05 20:12:00,
2013-04-05 16:16:00,57.4,12.9,29.74,ESE,112,4.3,8.7,17,5.14,,---,0.00,VWS V14.00,2013-04-05 20:16:00,
2013-04-05 16:19:00,57.2,12.8,29.74,SE,135,9.4,11.0,17,5.14,,---,0.00,VWS V14.00,2013-04-05 20:19:00,
2013-04-05 16:20:00,57.2,12.8,29.74,SE,135,7.4,7.4,17,5.14,,---,0.00,VWS V14.00,2013-04-05 20:20:00,
2013-04-05 16:22:00,57.2,12.8,29.74,SSE,158,5.8,7.6,17,5.14,,---,0.00,VWS V14.00,2013-04-05 20:22:00,
2013-04-05 16:24:00,56.8,12.5,29.74,SE,135,4.7,8.7,17,5.14,,---,0.00,VWS V14.00,2013-04-05 20:24:00,
2013-04-05 16:26:00,56.7,12.4,29.74,SSE,158,7.8,8.5,17,5.14,,---,0.00,VWS V14.00,2013-04-05 20:26:00,
2013-04-05 16:30:00,56.7,12.4,29.74,SE,135,8.1,8.1,17,5.14,,---,0.00,VWS V14.00,2013-04-05 20:30:00,
2013-04-05 16:31:00,56.5,12.2,29.74,South,180,4.3,8.1,17,5.14,,---,0.00,VWS V14.00,2013-04-05 20:31:00,
2013-04-05 16:37:00,56.7,12.4,29.74,ESE,112,5.4,6.0,17,5.14,,---,0.00,VWS V14.00,2013-04-05 20:37:00,
2013-04-05 16:40:00,56.7,12.4,29.74,SSE,158,7.4,7.6,17,5.14,,---,0.00,VWS V14.00,2013-04-05 20:40:00,
2013-04-05 16:41:00,57.0,12.7,29.74,SSE,158,5.8,5.8,17,5.14,,---,0.00,VWS V14.00,2013-04-05 20:41:00,
2013-04-05 16:42:00,57.0,12.7,29.74,SSE,158,4.9,7.6,17,5.14,,---,0.00,VWS V14.00,2013-04-05 20:42:00,
2013-04-05 16:48:00,56.1,11.9,29.74,SSE,158,5.8,8.5,17,5.14,,---,0.00,VWS V14.00,2013-04-05 20:48:00,
2013-04-05 16:49:00,56.1,11.9,29.74,SSE,158,6.3,8.5,17,5.14,,---,0.00,VWS V14.00,2013-04-05 20:49:00,
2013-04-05 16:52:00,56.1,11.9,29.74,SE,135,7.2,7.4,17,5.14,,---,0.00,VWS V14.00,2013-04-05 20:52:00,
2013-04-05 16:54:00,56.3,12.1,29.74,ESE,112,4.0,4.0,17,5.14,,---,0.00,VWS V14.00,2013-04-05 20:54:00,
2013-04-05 16:56:00,55.9,11.8,29.74,SE,135,6.3,6.3,17,5.14,,---,0.00,VWS V14.00,2013-04-05 20:56:00,
2013-04-05 17:02:00,56.3,12.1,29.74,SSW,202,6.0,6.0,17,5.14,,---,0.00,VWS V14.00,2013-04-05 21:02:00,
2013-04-05 17:03:00,56.3,12.1,29.74,South,180,7.6,7.6,17,5.14,,---,0.00,VWS V14.00,2013-04-05 21:03:00,
2013-04-05 17:05:00,55.4,11.3,29.74,SSE,158,13.9,13.9,17,5.14,,---,0.00,VWS V14.00,2013-04-05 21:05:00,
2013-04-05 17:06:00,55.0,12.3,29.74,South,180,4.3,13.9,18,5.14,,---,0.00,VWS V14.00,2013-04-05 21:06:00,
2013-04-05 17:10:00,54.7,12.0,29.74,SSE,158,7.6,7.6,18,5.14,,---,0.00,VWS V14.00,2013-04-05 21:10:00,
2013-04-05 17:12:00,54.5,11.9,29.74,SSW,202,3.6,9.4,18,5.14,,---,0.00,VWS V14.00,2013-04-05 21:12:00,
2013-04-05 17:18:00,54.5,11.9,29.74,SSW,202,7.4,7.8,18,5.14,,---,0.00,VWS V14.00,2013-04-05 21:18:00,
2013-04-05 17:22:00,54.1,11.6,29.76,South,180,6.5,10.7,18,5.14,,---,0.00,VWS V14.00,2013-04-05 21:22:00,
2013-04-05 17:23:00,54.1,11.6,29.76,SSW,202,8.5,8.5,18,5.14,,---,0.00,VWS V14.00,2013-04-05 21:23:00,
2013-04-05 17:24:00,54.1,11.6,29.76,SSW,202,5.4,8.5,18,5.14,,---,0.00,VWS V14.00,2013-04-05 21:24:00,
2013-04-05 17:29:00,54.1,11.6,29.76,SSW,202,9.6,9.6,18,5.14,,---,0.00,VWS V14.00,2013-04-05 21:29:00,
2013-04-05 17:30:00,54.0,11.4,29.76,SSE,158,3.4,9.6,18,5.14,,---,0.00,VWS V14.00,2013-04-05 21:30:00,
2013-04-05 17:31:00,54.1,11.6,29.76,SSE,158,5.6,8.7,18,5.14,,---,0.00,VWS V14.00,2013-04-05 21:31:00,
2013-04-05 17:36:00,52.9,10.6,29.79,SSW,202,14.5,14.5,18,5.14,,---,0.00,VWS V14.00,2013-04-05 21:36:00,
2013-04-05 17:38:00,52.7,10.4,29.79,South,180,10.5,11.9,18,5.14,,---,0.00,VWS V14.00,2013-04-05 21:38:00,
2013-04-05 17:39:00,52.5,10.2,29.79,South,180,7.4,11.2,18,5.14,,---,0.00,VWS V14.00,2013-04-05 21:39:00,
2013-04-05 17:42:00,52.3,10.1,29.79,SSW,202,5.6,9.6,18,5.14,,---,0.00,VWS V14.00,2013-04-05 21:42:00,
2013-04-05 17:45:00,52.5,10.2,29.79,South,180,3.8,7.8,18,5.14,,---,0.00,VWS V14.00,2013-04-05 21:45:00,
2013-04-05 17:47:00,52.5,10.2,29.79,South,180,3.4,7.8,18,5.14,,---,0.00,VWS V14.00,2013-04-05 21:47:00,
2013-04-05 17:52:00,52.5,10.2,29.79,South,180,6.0,7.6,18,5.14,,---,0.00,VWS V14.00,2013-04-05 21:52:00,
2013-04-05 17:53:00,52.5,10.2,29.79,SSW,202,5.8,8.5,18,5.14,,---,0.00,VWS V14.00,2013-04-05 21:53:00,
2013-04-05 17:54:00,52.3,10.1,29.79,South,180,5.6,6.0,18,5.14,,---,0.00,VWS V14.00,2013-04-05 21:54:00,
2013-04-05 17:55:00,52.2,10.0,29.79,SSW,202,6.5,6.5,18,5.14,,---,0.00,VWS V14.00,2013-04-05 21:55:00,
2013-04-05 18:00:00,52.2,10.0,29.79,SSW,202,4.3,6.5,18,5.14,,---,0.00,VWS V14.00,2013-04-05 22:00:00,
2013-04-05 18:02:00,52.3,13.6,29.79,SSE,158,4.9,6.5,21,5.14,,---,0.00,VWS V14.00,2013-04-05 22:02:00,
2013-04-05 18:05:00,52.5,13.7,29.79,SSW,202,2.7,3.8,21,5.14,,---,0.00,VWS V14.00,2013-04-05 22:05:00,
2013-04-05 18:09:00,52.9,14.0,29.79,SSE,158,3.1,4.3,21,5.14,,---,0.00,VWS V14.00,2013-04-05 22:09:00,
2013-04-05 18:11:00,53.1,14.2,29.79,SE,135,5.8,5.8,21,5.14,,---,0.00,VWS V14.00,2013-04-05 22:11:00,
2013-04-05 18:15:00,53.1,14.2,29.79,SSW,202,2.0,5.4,21,5.14,,---,0.00,VWS V14.00,2013-04-05 22:15:00,
2013-04-05 18:16:00,53.1,14.2,29.79,SSE,158,1.6,3.6,21,5.14,,---,0.00,VWS V14.00,2013-04-05 22:16:00,
2013-04-05 18:18:00,53.2,14.3,29.79,SSE,158,3.8,3.8,21,5.14,,---,0.00,VWS V14.00,2013-04-05 22:18:00,
2013-04-05 18:25:00,53.8,13.7,29.79,SSE,158,3.1,4.3,20,0.00,,---,0.00,VWS V14.00,2013-04-05 22:25:00,
2013-04-05 18:26:00,54.3,14.1,29.79,SSE,158,4.0,4.0,20,0.00,,---,0.00,VWS V14.00,2013-04-05 22:26:00,
2013-04-05 18:27:00,54.3,14.1,29.79,NW,315,0.0,4.0,20,0.00,,---,0.00,VWS V14.00,2013-04-05 22:27:00,
2013-04-05 18:29:00,54.5,14.3,29.79,SSW,202,1.1,1.1,20,0.00,,---,0.00,VWS V14.00,2013-04-05 22:29:00,
2013-04-05 18:34:00,54.1,14.0,29.79,WSW,248,0.0,3.1,20,0.00,,---,0.00,VWS V14.00,2013-04-05 22:34:00,
2013-04-05 18:36:00,54.5,14.3,29.79,SSE,158,2.7,2.7,20,0.00,,---,0.00,VWS V14.00,2013-04-05 22:36:00,
2013-04-05 18:37:00,54.3,14.1,29.79,NNE,22,2.7,3.4,20,0.00,,---,0.00,VWS V14.00,2013-04-05 22:37:00,
2013-04-05 18:39:00,54.3,14.1,29.79,NNW,338,5.4,5.4,20,0.00,,---,0.00,VWS V14.00,2013-04-05 22:39:00,
2013-04-05 18:41:00,56.1,11.9,29.79,NNW,338,6.0,7.6,17,0.00,,---,0.00,VWS V14.00,2013-04-05 22:41:00,
2013-04-05 18:45:00,57.6,13.1,29.79,NNW,338,6.5,6.5,17,0.00,,---,0.00,VWS V14.00,2013-04-05 22:45:00,
2013-04-05 18:47:00,57.9,13.4,29.79,NNW,338,5.4,6.5,17,0.00,,---,0.00,VWS V14.00,2013-04-05 22:47:00,
2013-04-05 18:50:00,58.6,14.0,29.79,WNW,292,7.8,8.5,17,0.00,,---,0.00,VWS V14.00,2013-04-05 22:50:00,
2013-04-05 18:51:00,58.6,14.0,29.79,North,0,5.4,9.4,17,0.00,,---,0.00,VWS V14.00,2013-04-05 22:51:00,
2013-04-05 18:53:00,58.6,14.0,29.79,North,0,6.0,6.0,17,0.00,,---,0.00,VWS V14.00,2013-04-05 22:53:00,
2013-04-05 18:56:00,58.8,14.1,29.79,NNW,338,8.7,8.7,17,0.00,,---,0.00,VWS V14.00,2013-04-05 22:56:00,
2013-04-05 18:59:00,58.8,14.1,29.79,NNE,22,4.3,7.6,17,0.00,,---,0.00,VWS V14.00,2013-04-05 22:59:00,
2013-04-05 19:02:00,58.8,14.1,29.79,North,0,8.1,8.1,17,0.00,,---,0.00,VWS V14.00,2013-04-05 23:02:00,
2013-04-05 19:05:00,58.6,14.0,29.79,North,0,5.8,10.3,17,0.00,,---,0.00,VWS V14.00,2013-04-05 23:05:00,
2013-04-05 19:06:00,58.6,14.0,29.79,North,0,6.0,10.5,17,0.00,,---,0.00,VWS V14.00,2013-04-05 23:06:00,
2013-04-05 19:12:00,58.6,14.0,29.79,North,0,2.0,6.0,17,0.00,,---,0.00,VWS V14.00,2013-04-05 23:12:00,
2013-04-05 19:14:00,58.5,13.8,29.79,NNW,338,2.0,4.3,17,0.00,,---,0.00,VWS V14.00,2013-04-05 23:14:00,
2013-04-05 19:19:00,58.3,13.7,29.79,North,0,5.6,7.4,17,0.00,,---,0.00,VWS V14.00,2013-04-05 23:19:00,
2013-04-05 19:20:00,58.3,13.7,29.82,NNW,338,5.6,7.6,17,0.00,,---,0.00,VWS V14.00,2013-04-05 23:20:00,
2013-04-05 19:24:00,58.1,13.5,29.82,North,0,5.8,7.8,17,0.00,,---,0.00,VWS V14.00,2013-04-05 23:24:00,
2013-04-05 19:26:00,58.1,13.5,29.82,North,0,3.1,10.1,17,0.00,,---,0.00,VWS V14.00,2013-04-05 23:26:00,
2013-04-05 19:29:00,57.7,13.2,29.82,North,0,4.0,8.7,17,0.00,,---,0.00,VWS V14.00,2013-04-05 23:29:00,
2013-04-05 19:32:00,57.6,13.1,29.82,NNW,338,4.7,6.0,17,0.00,,---,0.00,VWS V14.00,2013-04-05 23:32:00,
2013-04-05 19:35:00,57.4,12.9,29.82,NNW,338,3.8,4.9,17,0.00,,---,0.00,VWS V14.00,2013-04-05 23:35:00,
2013-04-05 19:37:00,57.2,12.8,29.82,NNW,338,4.9,4.9,17,0.00,,---,0.00,VWS V14.00,2013-04-05 23:37:00,
2013-04-05 19:40:00,57.2,12.8,29.82,NW,315,4.0,8.5,17,0.00,,---,0.00,VWS V14.00,2013-04-05 23:40:00,
2013-04-05 19:42:00,57.2,12.8,29.82,North,0,3.4,6.9,17,0.00,,---,0.00,VWS V14.00,2013-04-05 23:42:00,
2013-04-05 19:47:00,56.8,12.5,29.82,NW,315,5.8,6.9,17,0.00,,---,0.00,VWS V14.00,2013-04-05 23:47:00,
2013-04-05 19:51:00,56.8,12.5,29.82,NW,315,4.9,8.7,17,0.00,,---,0.00,VWS V14.00,2013-04-05 23:51:00,
2013-04-05 19:55:00,56.5,12.2,29.82,NNW,338,4.0,4.3,17,0.00,,---,0.00,VWS V14.00,2013-04-05 23:55:00,
2013-04-05 19:56:00,56.5,12.2,29.82,NNE,22,3.4,4.0,17,0.00,,---,0.00,VWS V14.00,2013-04-05 23:56:00,
2013-04-05 20:00:00,56.1,11.9,29.82,North,0,4.3,4.3,17,0.00,,---,0.00,VWS V14.00,2013-04-06 00:00:00,
2013-04-05 20:02:00,56.1,11.9,29.82,NNW,338,0.0,4.3,17,0.00,,---,0.00,VWS V14.00,2013-04-06 00:02:00,
2013-04-05 20:08:00,55.8,11.6,29.82,NNE,22,0.9,3.6,17,0.00,,---,0.00,VWS V14.00,2013-04-06 00:08:00,
2013-04-05 20:09:00,55.6,11.5,29.82,North,0,1.1,2.2,17,0.00,,---,0.00,VWS V14.00,2013-04-06 00:09:00,
2013-04-05 20:10:00,55.6,11.5,29.82,North,0,3.6,5.6,17,0.00,,---,0.00,VWS V14.00,2013-04-06 00:10:00,
2013-04-05 20:11:00,55.6,11.5,29.82,NNE,22,4.7,4.7,17,0.00,,---,0.00,VWS V14.00,2013-04-06 00:11:00,
2013-04-05 20:14:00,55.6,11.5,29.82,NW,315,4.0,6.0,17,0.00,,---,0.00,VWS V14.00,2013-04-06 00:14:00,
2013-04-05 20:17:00,55.6,11.5,29.82,NNW,338,3.1,5.6,17,0.00,,---,0.00,VWS V14.00,2013-04-06 00:17:00,
2013-04-05 20:19:00,55.6,11.5,29.85,NNW,338,4.0,4.9,17,0.00,,---,0.00,VWS V14.00,2013-04-06 00:19:00,
2013-04-05 20:21:00,55.4,11.3,29.85,NW,315,2.5,4.3,17,0.00,,---,0.00,VWS V14.00,2013-04-06 00:21:00,
2013-04-05 20:26:00,55.0,12.3,29.85,North,0,3.8,4.9,18,0.00,,---,0.00,VWS V14.00,2013-04-06 00:26:00,
2013-04-05 20:27:00,55.0,12.3,29.85,North,0,3.6,3.8,18,0.00,,---,0.00,VWS V14.00,2013-04-06 00:27:00,
2013-04-05 20:29:00,54.9,12.2,29.85,NW,315,2.7,3.8,18,0.00,,---,0.00,VWS V14.00,2013-04-06 00:29:00,
2013-04-05 20:33:00,54.7,12.0,29.85,North,0,3.1,3.6,18,0.00,,---,0.00,VWS V14.00,2013-04-06 00:33:00,
2013-04-05 20:37:00,54.1,11.6,29.85,WNW,292,0.9,1.6,18,0.00,,---,0.00,VWS V14.00,2013-04-06 00:37:00,
2013-04-05 20:39:00,54.1,11.6,29.85,NNW,338,2.9,2.9,18,0.00,,---,0.00,VWS V14.00,2013-04-06 00:39:00,
2013-04-05 20:40:00,54.0,11.4,29.85,NNW,338,1.1,2.9,18,0.00,,---,0.00,VWS V14.00,2013-04-06 00:40:00,
2013-04-05 20:44:00,53.8,11.3,29.85,NNW,338,1.6,3.4,18,0.00,,---,0.00,VWS V14.00,2013-04-06 00:44:00,
2013-04-05 20:46:00,53.8,11.3,29.85,North,0,0.9,1.6,18,0.00,,---,0.00,VWS V14.00,2013-04-06 00:46:00,
2013-04-05 20:47:00,53.6,11.1,29.85,North,0,1.6,3.6,18,0.00,,---,0.00,VWS V14.00,2013-04-06 00:47:00,
2013-04-05 20:49:00,53.6,11.1,29.85,NNE,22,1.6,3.1,18,0.00,,---,0.00,VWS V14.00,2013-04-06 00:49:00,
2013-04-05 20:52:00,53.6,11.1,29.82,NNW,338,1.3,3.4,18,0.00,,---,0.00,VWS V14.00,2013-04-06 00:52:00,
2013-04-05 20:53:00,53.6,11.1,29.82,NNW,338,1.3,2.0,18,0.00,,---,0.00,VWS V14.00,2013-04-06 00:53:00,
2013-04-05 20:54:00,53.2,10.9,29.82,NNW,338,2.2,2.2,18,0.00,,---,0.00,VWS V14.00,2013-04-06 00:54:00,
2013-04-05 20:56:00,53.2,10.9,29.82,North,0,2.9,4.0,18,0.00,,---,0.00,VWS V14.00,2013-04-06 00:56:00,
2013-04-05 20:59:00,53.1,10.7,29.82,NNW,338,2.0,2.7,18,0.00,,---,0.00,VWS V14.00,2013-04-06 00:59:00,
2013-04-05 21:01:00,53.1,10.7,29.82,NW,315,0.9,2.7,18,0.00,,---,0.00,VWS V14.00,2013-04-06 01:01:00,
2013-04-05 21:04:00,52.9,10.6,29.85,NNW,338,1.3,1.3,18,0.00,,---,0.00,VWS V14.00,2013-04-06 01:04:00,
2013-04-05 21:06:00,52.7,10.4,29.85,North,0,1.3,3.4,18,12.96,,---,12.76,VWS V14.00,2013-04-06 01:06:00,
2013-04-05 21:08:00,52.7,10.4,29.85,North,0,3.4,3.8,18,12.96,,---,12.76,VWS V14.00,2013-04-06 01:08:00,
2013-04-05 21:11:00,52.9,10.6,29.85,NNW,338,10.7,10.7,18,5.14,,---,20.17,VWS V14.00,2013-04-06 01:11:00,
2013-04-05 21:12:00,53.1,10.7,29.85,NNE,22,6.5,10.7,18,5.14,,---,20.17,VWS V14.00,2013-04-06 01:12:00,
2013-04-05 21:15:00,53.4,11.0,29.85,NNE,22,8.1,8.1,18,5.14,,---,20.17,VWS V14.00,2013-04-06 01:15:00,
2013-04-05 21:19:00,53.2,10.9,29.91,NNE,22,3.1,4.3,18,5.14,,---,20.17,VWS V14.00,2013-04-06 01:19:00,
2013-04-05 21:21:00,53.1,10.7,29.91,NNE,22,3.6,4.9,18,5.14,,---,20.17,VWS V14.00,2013-04-06 01:21:00,
2013-04-05 21:27:00,53.1,10.7,29.91,NNE,22,5.4,5.8,18,5.14,,---,20.17,VWS V14.00,2013-04-06 01:27:00,
2013-04-05 21:29:00,53.1,10.7,29.91,North,0,7.2,7.2,18,5.14,,---,20.17,VWS V14.00,2013-04-06 01:29:00,
2013-04-05 21:32:00,53.1,10.7,29.91,NNW,338,4.3,5.6,18,5.14,,---,20.17,VWS V14.00,2013-04-06 01:32:00,
2013-04-05 21:33:00,53.1,10.7,29.91,North,0,3.4,4.7,18,5.14,,---,20.17,VWS V14.00,2013-04-06 01:33:00,
2013-04-05 21:35:00,53.1,10.7,29.91,NNW,338,5.4,12.5,18,5.14,,---,20.17,VWS V14.00,2013-04-06 01:35:00,
2013-04-05 21:38:00,53.1,10.7,29.91,North,0,4.0,5.6,18,5.14,,---,20.17,VWS V14.00,2013-04-06 01:38:00,
2013-04-05 21:39:00,52.9,10.6,29.91,North,0,4.3,5.4,18,5.14,,---,20.17,VWS V14.00,2013-04-06 01:39:00,
2013-04-05 21:44:00,52.9,10.6,29.91,NNW,338,8.7,9.8,18,5.14,,---,20.17,VWS V14.00,2013-04-06 01:44:00,
2013-04-05 21:47:00,52.7,10.4,29.91,North,0,6.0,6.5,18,5.14,,---,20.17,VWS V14.00,2013-04-06 01:47:00,
2013-04-05 21:50:00,52.7,10.4,29.91,North,0,10.7,10.7,18,5.14,,---,20.17,VWS V14.00,2013-04-06 01:50:00,
2013-04-05 21:52:00,52.7,10.4,29.91,NNE,22,4.3,10.7,18,5.14,,---,20.17,VWS V14.00,2013-04-06 01:52:00,
2013-04-05 21:53:00,52.5,10.2,29.91,NNE,22,7.4,7.4,18,5.14,,---,20.17,VWS V14.00,2013-04-06 01:53:00,
2013-04-05 21:55:00,52.3,10.1,29.91,North,0,9.8,10.1,18,5.14,,---,20.17,VWS V14.00,2013-04-06 01:55:00,
2013-04-05 21:57:00,52.3,10.1,29.91,North,0,6.3,8.7,18,5.14,,---,20.17,VWS V14.00,2013-04-06 01:57:00,
2013-04-05 22:03:00,52.3,10.1,29.91,NNE,22,7.8,10.5,18,5.14,,---,20.17,VWS V14.00,2013-04-06 02:03:00,
2013-04-05 22:04:00,52.2,10.0,29.88,NNE,22,11.9,11.9,18,5.14,,---,20.17,VWS V14.00,2013-04-06 02:04:00,
2013-04-05 22:06:00,52.2,10.0,29.88,NNW,338,4.0,9.8,18,5.14,,---,20.17,VWS V14.00,2013-04-06 02:06:00,
2013-04-05 22:09:00,52.0,9.8,29.88,NNE,22,6.5,11.0,18,5.14,,---,20.17,VWS V14.00,2013-04-06 02:09:00,
2013-04-05 22:13:00,51.8,9.7,29.88,North,0,6.5,8.5,18,5.14,,---,20.17,VWS V14.00,2013-04-06 02:13:00,
2013-04-05 22:17:00,51.6,10.7,29.88,NNE,22,4.9,9.8,19,5.14,,---,20.17,VWS V14.00,2013-04-06 02:17:00,
2013-04-05 22:18:00,51.6,10.7,29.88,NNE,22,6.3,10.3,19,5.14,,---,20.17,VWS V14.00,2013-04-06 02:18:00,
2013-04-05 22:20:00,51.6,10.7,29.91,NNE,22,7.8,7.8,19,5.14,,---,20.17,VWS V14.00,2013-04-06 02:20:00,
2013-04-05 22:22:00,51.6,10.7,29.91,North,0,6.0,11.0,19,5.14,,---,20.17,VWS V14.00,2013-04-06 02:22:00,
2013-04-05 22:24:00,51.6,10.7,29.91,NNE,22,7.6,10.5,19,5.14,,---,20.17,VWS V14.00,2013-04-06 02:24:00,
2013-04-05 22:25:00,51.4,10.6,29.91,North,0,7.4,7.4,19,5.14,,---,20.17,VWS V14.00,2013-04-06 02:25:00,
2013-04-05 22:26:00,51.4,10.6,29.91,North,0,7.8,10.5,19,5.14,,---,20.17,VWS V14.00,2013-04-06 02:26:00,
2013-04-05 22:29:00,51.4,10.6,29.91,NNW,338,5.6,7.8,19,5.14,,---,20.17,VWS V14.00,2013-04-06 02:29:00,
2013-04-05 22:35:00,50.9,10.1,29.94,North,0,7.4,8.7,19,5.14,,---,20.17,VWS V14.00,2013-04-06 02:35:00,
2013-04-05 22:39:00,50.7,10.0,29.94,NNW,338,7.6,10.7,19,5.14,,---,20.17,VWS V14.00,2013-04-06 02:39:00,
2013-04-05 22:41:00,50.7,10.0,29.94,North,0,5.8,8.7,19,5.14,,---,20.17,VWS V14.00,2013-04-06 02:41:00,
2013-04-05 22:45:00,50.4,9.7,29.94,North,0,7.4,7.8,19,5.14,,---,20.17,VWS V14.00,2013-04-06 02:45:00,
2013-04-05 22:48:00,50.2,9.5,29.94,NNE,22,5.6,10.1,19,5.14,,---,20.17,VWS V14.00,2013-04-06 02:48:00,
2013-04-05 22:50:00,50.2,9.5,29.94,NNE,22,8.1,8.1,19,5.14,,---,20.17,VWS V14.00,2013-04-06 02:50:00,
2013-04-05 22:55:00,50.0,9.4,29.94,NW,315,4.9,9.4,19,5.14,,---,20.17,VWS V14.00,2013-04-06 02:55:00,
2013-04-05 22:57:00,49.8,9.2,29.94,NNW,338,6.5,7.4,19,5.14,,---,20.17,VWS V14.00,2013-04-06 02:57:00,
2013-04-05 23:00:00,49.8,9.2,29.94,North,0,9.4,11.0,19,5.14,,---,20.17,VWS V14.00,2013-04-06 03:00:00,
2013-04-05 23:02:00,49.6,9.1,29.94,NNE,22,10.1,12.3,19,5.14,,---,20.17,VWS V14.00,2013-04-06 03:02:00,
2013-04-05 23:03:00,49.6,9.1,29.94,North,0,7.4,10.1,19,5.14,,---,20.17,VWS V14.00,2013-04-06 03:03:00,
2013-04-05 23:07:00,49.5,8.9,29.94,NNW,338,7.6,8.5,19,5.14,,---,20.17,VWS V14.00,2013-04-06 03:07:00,
2013-04-05 23:09:00,49.3,8.8,29.94,NNE,22,5.8,10.5,19,5.14,,---,20.17,VWS V14.00,2013-04-06 03:09:00,
2013-04-05 23:10:00,49.1,8.6,29.94,NE,45,3.6,8.5,19,5.14,,---,20.17,VWS V14.00,2013-04-06 03:10:00,
2013-04-05 23:14:00,48.9,8.5,29.94,North,0,7.4,9.0,19,5.14,,---,20.17,VWS V14.00,2013-04-06 03:14:00,
2013-04-05 23:17:00,48.9,8.5,29.94,North,0,6.3,8.5,19,5.14,,---,20.17,VWS V14.00,2013-04-06 03:17:00,
2013-04-05 23:19:00,48.7,8.3,29.94,North,0,3.6,7.6,19,5.14,,---,20.17,VWS V14.00,2013-04-06 03:19:00,
2013-04-05 23:21:00,48.7,8.3,29.94,North,0,9.8,9.8,19,5.14,,---,20.17,VWS V14.00,2013-04-06 03:21:00,
2013-04-05 23:23:00,48.6,8.2,29.94,NNW,338,8.7,13.2,19,5.14,,---,20.17,VWS V14.00,2013-04-06 03:23:00,
2013-04-05 23:25:00,48.4,8.0,29.94,North,0,4.9,10.1,19,5.14,,---,20.17,VWS V14.00,2013-04-06 03:25:00,
2013-04-05 23:27:00,48.2,7.9,29.94,WNW,292,6.3,11.9,19,5.14,,---,20.17,VWS V14.00,2013-04-06 03:27:00,
2013-04-05 23:32:00,48.0,7.7,29.94,North,0,8.7,10.3,19,5.14,,---,20.17,VWS V14.00,2013-04-06 03:32:00,
2013-04-05 23:34:00,47.8,7.6,29.94,NNW,338,6.5,10.1,19,5.14,,---,20.17,VWS V14.00,2013-04-06 03:34:00,
2013-04-05 23:37:00,47.7,7.4,29.97,NNE,22,12.8,12.8,19,5.14,,---,20.17,VWS V14.00,2013-04-06 03:37:00,
2013-04-05 23:39:00,47.7,7.4,29.97,NNW,338,9.2,17.0,19,5.14,,---,20.17,VWS V14.00,2013-04-06 03:39:00,
2013-04-05 23:44:00,47.3,7.1,29.97,NNW,338,4.9,10.5,19,5.14,,---,20.17,VWS V14.00,2013-04-06 03:44:00,
2013-04-05 23:45:00,47.3,7.1,29.97,WNW,292,9.8,9.8,19,5.14,,---,20.17,VWS V14.00,2013-04-06 03:45:00,
2013-04-05 23:49:00,47.1,7.0,29.97,North,0,4.7,10.3,19,5.14,,---,20.17,VWS V14.00,2013-04-06 03:49:00,
2013-04-05 23:50:00,46.9,6.8,29.97,North,0,3.1,7.4,19,5.14,,---,20.17,VWS V14.00,2013-04-06 03:50:00,
2013-04-05 23:52:00,46.9,6.8,29.97,NNW,338,9.6,14.8,19,5.14,,---,20.17,VWS V14.00,2013-04-06 03:52:00,
2013-04-05 23:55:00,46.8,6.7,29.97,NNW,338,5.8,8.1,19,5.14,,---,20.17,VWS V14.00,2013-04-06 03:55:00,
2013-04-05 23:56:00,46.8,6.7,29.97,NW,315,12.5,12.5,19,5.14,,---,20.17,VWS V14.00,2013-04-06 03:56:00,
2013-04-05 23:57:00,46.6,6.5,29.97,North,0,11.0,12.5,19,5.14,,---,20.17,VWS V14.00,2013-04-06 03:57:00,